Time,TemperatureF,DewpointF,PressureIn,WindDirection,WindDirectionDegrees,WindSpeedMPH,WindSpeedGustMPH,Humidity,HourlyPrecipIn,Conditions,Clouds,dailyrainin,SoftwareType,DateUTC
2013-10-07 00:01:00,52.7,49.2,29.29,North,0,0.0,0.0,88,0.04,,,0.07,WUHU216HW,2013-10-07 07:01:00,
2013-10-07 00:02:00,52.7,49.2,29.29,North,0,0.0,0.0,88,0.04,,,0.07,WUHU216HW,2013-10-07 07:02:00,
2013-10-07 00:04:00,52.7,49.2,29.30,North,0,0.0,0.0,88,0.03,,,0.00,WUHU216HW,2013-10-07 07:04:00,
2013-10-07 00:06:00,52.7,49.2,29.29,North,0,0.0,0.0,88,0.03,,,0.00,WUHU216HW,2013-10-07 07:06:00,
2013-10-07 00:07:00,52.7,49.2,29.29,North,0,0.0,0.0,88,0.03,,,0.00,WUHU216HW,2013-10-07 07:07:00,
2013-10-07 00:09:00,52.7,49.6,29.29,North,0,0.0,0.0,89,0.02,,,0.00,WUHU216HW,2013-10-07 07:09:00,
2013-10-07 00:11:00,52.7,49.6,29.29,North,0,0.0,0.0,89,0.02,,,0.00,WUHU216HW,2013-10-07 07:11:00,
2013-10-07 00:12:00,52.7,49.6,29.29,North,0,0.0,0.0,89,0.02,,,0.00,WUHU216HW,2013-10-07 07:12:00,
2013-10-07 00:14:00,52.7,49.6,29.29,North,0,0.0,0.0,89,0.02,,,0.00,WUHU216HW,2013-10-07 07:14:00,
2013-10-07 00:16:00,52.7,49.6,29.28,North,0,0.0,0.0,89,0.01,,,0.00,WUHU216HW,2013-10-07 07:16:00,
2013-10-07 00:17:00,52.7,49.6,29.28,North,0,0.0,0.0,89,0.01,,,0.00,WUHU216HW,2013-10-07 07:17:00,
2013-10-07 00:20:00,52.7,49.6,29.28,North,0,0.0,0.0,89,0.00,,,0.00,WUHU216HW,2013-10-07 07:20:00,
2013-10-07 00:22:00,52.7,49.6,29.28,North,0,0.0,0.0,89,0.00,,,0.00,WUHU216HW,2013-10-07 07:22:00,
2013-10-07 00:23:00,52.7,49.6,29.28,North,0,0.0,0.0,89,0.00,,,0.00,WUHU216HW,2013-10-07 07:23:00,
2013-10-07 00:25:00,52.7,49.6,29.28,North,0,0.0,0.0,89,0.00,,,0.00,WUHU216HW,2013-10-07 07:25:00,
2013-10-07 00:27:00,52.7,49.9,29.28,North,0,0.0,0.0,90,0.00,,,0.00,WUHU216HW,2013-10-07 07:27:00,
2013-10-07 00:28:00,52.7,49.9,29.27,North,0,0.0,0.0,90,0.00,,,0.00,WUHU216HW,2013-10-07 07:28:00,
2013-10-07 00:30:00,52.7,49.9,29.28,North,0,0.0,0.0,90,0.00,,,0.00,WUHU216HW,2013-10-07 07:30:00,
2013-10-07 00:32:00,52.7,49.9,29.27,North,0,0.0,0.0,90,0.00,,,0.00,WUHU216HW,2013-10-07 07:32:00,
2013-10-07 00:33:00,52.7,49.9,29.28,North,0,0.0,0.0,90,0.00,,,0.00,WUHU216HW,2013-10-07 07:33:00,
2013-10-07 00:35:00,52.6,50.0,29.28,North,0,0.0,0.0,91,0.00,,,0.00,WUHU216HW,2013-10-07 07:35:00,
2013-10-07 00:36:00,52.6,49.7,29.28,North,0,0.0,0.0,90,0.00,,,0.00,WUHU216HW,2013-10-07 07:36:00,
2013-10-07 00:37:00,52.6,49.7,29.28,North,0,0.0,0.0,90,0.00,,,0.00,WUHU216HW,2013-10-07 07:37:00,
2013-10-07 00:38:00,52.6,49.7,29.28,North,0,0.0,0.0,90,0.00,,,0.00,WUHU216HW,2013-10-07 07:38:00,
2013-10-07 00:40:00,52.6,49.7,29.28,North,0,0.0,0.0,90,0.00,,,0.00,WUHU216HW,2013-10-07 07:40:00,
2013-10-07 00:41:00,52.6,49.7,29.28,North,0,0.0,0.0,90,0.00,,,0.00,WUHU216HW,2013-10-07 07:41:00,
2013-10-07 00:42:00,52.6,49.7,29.28,North,0,0.0,0.0,90,0.00,,,0.00,WUHU216HW,2013-10-07 07:42:00,
2013-10-07 00:43:00,52.6,49.7,29.28,North,0,0.0,0.0,90,0.00,,,0.00,WUHU216HW,2013-10-07 07:43:00,
2013-10-07 00:46:00,52.6,50.0,29.28,North,0,0.0,0.0,91,0.00,,,0.00,WUHU216HW,2013-10-07 07:46:00,
2013-10-07 00:47:00,52.6,50.0,29.28,North,0,0.0,0.0,91,0.00,,,0.00,WUHU216HW,2013-10-07 07:47:00,
2013-10-07 00:48:00,52.6,50.0,29.28,North,0,0.0,0.0,91,0.00,,,0.00,WUHU216HW,2013-10-07 07:48:00,
2013-10-07 00:49:00,52.6,50.0,29.28,North,0,0.0,0.0,91,0.00,,,0.00,WUHU216HW,2013-10-07 07:49:00,
2013-10-07 00:51:00,52.6,50.0,29.28,North,0,0.0,0.0,91,0.00,,,0.00,WUHU216HW,2013-10-07 07:51:00,
2013-10-07 00:52:00,52.6,50.0,29.28,North,0,0.0,0.0,91,0.00,,,0.00,WUHU216HW,2013-10-07 07:52:00,
2013-10-07 00:53:00,52.6,50.0,29.28,North,0,0.0,0.0,91,0.00,,,0.00,WUHU216HW,2013-10-07 07:53:00,
2013-10-07 00:54:00,52.6,50.0,29.28,North,0,0.0,0.0,91,0.00,,,0.00,WUHU216HW,2013-10-07 07:54:00,
2013-10-07 00:56:00,52.6,50.0,29.28,North,0,0.0,0.0,91,0.00,,,0.00,WUHU216HW,2013-10-07 07:56:00,
2013-10-07 00:57:00,52.6,50.0,29.28,North,0,0.0,0.0,91,0.00,,,0.00,WUHU216HW,2013-10-07 07:57:00,
2013-10-07 00:58:00,52.6,50.0,29.28,North,0,0.0,0.0,91,0.00,,,0.00,WUHU216HW,2013-10-07 07:58:00,
2013-10-07 00:59:00,52.6,50.0,29.28,North,0,0.0,0.0,91,0.00,,,0.00,WUHU216HW,2013-10-07 07:59:00,
2013-10-07 01:01:00,52.6,50.0,29.29,North,0,0.0,0.0,91,0.00,,,0.00,WUHU216HW,2013-10-07 08:01:00,
2013-10-07 01:02:00,52.4,49.8,29.29,North,0,0.0,0.0,91,0.00,,,0.00,WUHU216HW,2013-10-07 08:02:00,
2013-10-07 01:03:00,52.6,50.0,29.28,North,0,0.0,0.0,91,0.00,,,0.00,WUHU216HW,2013-10-07 08:03:00,
2013-10-07 01:04:00,52.6,50.0,29.29,North,0,0.0,0.0,91,0.00,,,0.00,WUHU216HW,2013-10-07 08:04:00,
2013-10-07 01:05:00,52.6,50.0,29.29,North,0,0.0,0.0,91,0.00,,,0.00,WUHU216HW,2013-10-07 08:05:00,
2013-10-07 01:06:00,52.6,50.0,29.29,North,0,0.0,0.0,91,0.00,,,0.00,WUHU216HW,2013-10-07 08:06:00,
2013-10-07 01:07:00,52.6,50.0,29.29,North,0,0.0,0.0,91,0.00,,,0.00,WUHU216HW,2013-10-07 08:07:00,
2013-10-07 01:09:00,52.6,50.0,29.29,North,0,0.0,0.0,91,0.00,,,0.00,WUHU216HW,2013-10-07 08:09:00,
2013-10-07 01:11:00,52.6,50.0,29.29,North,0,0.0,0.0,91,0.00,,,0.00,WUHU216HW,2013-10-07 08:11:00,
2013-10-07 01:12:00,52.6,49.7,29.29,North,0,0.0,0.0,90,0.00,,,0.00,WUHU216HW,2013-10-07 08:12:00,
2013-10-07 01:14:00,52.6,49.7,29.29,North,0,0.0,0.0,90,0.00,,,0.00,WUHU216HW,2013-10-07 08:14:00,
2013-10-07 01:15:00,52.6,50.0,29.29,North,0,0.0,0.0,91,0.00,,,0.00,WUHU216HW,2013-10-07 08:15:00,
2013-10-07 01:16:00,52.6,50.0,29.29,North,0,0.0,0.0,91,0.00,,,0.00,WUHU216HW,2013-10-07 08:16:00,
2013-10-07 01:17:00,52.6,50.0,29.29,North,0,0.0,0.0,91,0.00,,,0.00,WUHU216HW,2013-10-07 08:17:00,
2013-10-07 01:18:00,52.6,50.0,29.29,North,0,0.0,0.0,91,0.00,,,0.00,WUHU216HW,2013-10-07 08:18:00,
2013-10-07 01:19:00,52.6,50.0,29.29,North,0,0.0,0.0,91,0.00,,,0.00,WUHU216HW,2013-10-07 08:19:00,
2013-10-07 01:20:00,52.6,50.0,29.29,North,0,0.0,0.0,91,0.00,,,0.00,WUHU216HW,2013-10-07 08:20:00,
2013-10-07 01:21:00,52.6,50.0,29.29,North,0,0.0,0.0,91,0.00,,,0.00,WUHU216HW,2013-10-07 08:21:00,
2013-10-07 01:22:00,52.6,49.7,29.29,North,0,0.0,0.0,90,0.00,,,0.00,WUHU216HW,2013-10-07 08:22:00,
2013-10-07 01:23:00,52.6,49.7,29.29,North,0,0.0,0.0,90,0.00,,,0.00,WUHU216HW,2013-10-07 08:23:00,
2013-10-07 01:24:00,52.6,50.0,29.29,North,0,0.0,0.0,91,0.00,,,0.00,WUHU216HW,2013-10-07 08:24:00,
2013-10-07 01:25:00,52.6,50.0,29.29,North,0,0.0,0.0,91,0.00,,,0.00,WUHU216HW,2013-10-07 08:25:00,
2013-10-07 01:26:00,52.6,50.0,29.29,North,0,0.0,0.0,91,0.00,,,0.00,WUHU216HW,2013-10-07 08:26:00,
2013-10-07 01:28:00,52.6,50.0,29.29,North,0,0.0,0.0,91,0.00,,,0.00,WUHU216HW,2013-10-07 08:28:00,
2013-10-07 01:29:00,52.7,50.1,29.29,North,0,0.0,0.0,91,0.00,,,0.00,WUHU216HW,2013-10-07 08:29:00,
2013-10-07 01:30:00,52.7,50.1,29.29,North,0,0.0,0.0,91,0.00,,,0.00,WUHU216HW,2013-10-07 08:30:00,
2013-10-07 01:31:00,52.7,50.1,29.29,North,0,0.0,0.0,91,0.00,,,0.00,WUHU216HW,2013-10-07 08:31:00,
2013-10-07 01:33:00,52.7,50.1,29.29,North,0,0.0,0.0,91,0.00,,,0.00,WUHU216HW,2013-10-07 08:33:00,
2013-10-07 01:34:00,52.7,50.1,29.29,North,0,0.0,0.0,91,0.00,,,0.00,WUHU216HW,2013-10-07 08:34:00,
2013-10-07 01:35:00,52.7,50.1,29.29,North,0,0.0,0.0,91,0.00,,,0.00,WUHU216HW,2013-10-07 08:35:00,
2013-10-07 01:36:00,52.9,50.3,29.29,North,0,0.0,0.0,91,0.00,,,0.00,WUHU216HW,2013-10-07 08:36:00,
2013-10-07 01:38:00,52.9,50.3,29.29,North,0,0.0,0.0,91,0.00,,,0.00,WUHU216HW,2013-10-07 08:38:00,
2013-10-07 01:39:00,52.9,50.3,29.29,North,0,0.0,0.0,91,0.00,,,0.00,WUHU216HW,2013-10-07 08:39:00,
2013-10-07 01:40:00,52.9,50.3,29.29,North,0,0.0,0.0,91,0.00,,,0.00,WUHU216HW,2013-10-07 08:40:00,
2013-10-07 01:41:00,52.9,50.3,29.29,North,0,0.0,0.0,91,0.00,,,0.00,WUHU216HW,2013-10-07 08:41:00,
2013-10-07 01:42:00,52.9,50.3,29.29,North,0,0.0,0.0,91,0.00,,,0.00,WUHU216HW,2013-10-07 08:42:00,
2013-10-07 01:43:00,52.9,50.3,29.29,North,0,0.0,0.0,91,0.00,,,0.00,WUHU216HW,2013-10-07 08:43:00,
2013-10-07 01:44:00,52.9,50.3,29.29,North,0,0.0,0.0,91,0.00,,,0.00,WUHU216HW,2013-10-07 08:44:00,
2013-10-07 01:45:00,52.9,50.3,29.29,North,0,0.0,0.0,91,0.00,,,0.00,WUHU216HW,2013-10-07 08:45:00,
2013-10-07 01:47:00,52.9,50.3,29.29,North,0,0.0,0.0,91,0.00,,,0.00,WUHU216HW,2013-10-07 08:47:00,
2013-10-07 01:48:00,52.9,50.3,29.29,North,0,0.0,0.0,91,0.00,,,0.00,WUHU216HW,2013-10-07 08:48:00,
2013-10-07 01:49:00,52.9,50.3,29.29,North,0,0.0,0.0,91,0.00,,,0.00,WUHU216HW,2013-10-07 08:49:00,
2013-10-07 01:50:00,52.9,50.3,29.29,North,0,0.0,0.0,91,0.00,,,0.00,WUHU216HW,2013-10-07 08:50:00,
2013-10-07 01:52:00,52.9,50.3,29.29,North,0,0.0,0.0,91,0.00,,,0.00,WUHU216HW,2013-10-07 08:52:00,
2013-10-07 01:53:00,52.7,50.1,29.28,North,0,0.0,0.0,91,0.00,,,0.00,WUHU216HW,2013-10-07 08:53:00,
2013-10-07 01:54:00,52.7,50.1,29.29,North,0,0.0,0.0,91,0.00,,,0.00,WUHU216HW,2013-10-07 08:54:00,
2013-10-07 01:55:00,52.7,50.1,29.29,North,0,0.0,0.0,91,0.00,,,0.00,WUHU216HW,2013-10-07 08:55:00,
2013-10-07 01:57:00,52.7,50.1,29.29,North,0,0.0,0.0,91,0.00,,,0.00,WUHU216HW,2013-10-07 08:57:00,
2013-10-07 01:58:00,52.7,50.1,29.29,North,0,0.0,0.0,91,0.00,,,0.00,WUHU216HW,2013-10-07 08:58:00,
2013-10-07 01:59:00,52.7,50.1,29.29,North,0,0.0,0.0,91,0.00,,,0.00,WUHU216HW,2013-10-07 08:59:00,
2013-10-07 02:00:00,52.6,50.0,29.29,North,0,0.0,0.0,91,0.00,,,0.00,WUHU216HW,2013-10-07 09:00:00,
2013-10-07 02:02:00,52.6,50.0,29.30,North,0,0.0,0.0,91,0.00,,,0.00,WUHU216HW,2013-10-07 09:02:00,
2013-10-07 02:03:00,52.6,50.0,29.30,North,0,0.0,0.0,91,0.00,,,0.00,WUHU216HW,2013-10-07 09:03:00,
2013-10-07 02:04:00,52.6,50.0,29.30,North,0,0.0,0.0,91,0.00,,,0.00,WUHU216HW,2013-10-07 09:04:00,
2013-10-07 02:05:00,52.4,49.8,29.30,North,0,0.0,0.0,91,0.00,,,0.00,WUHU216HW,2013-10-07 09:05:00,
2013-10-07 02:08:00,52.4,49.8,29.30,North,0,0.0,0.0,91,0.00,,,0.00,WUHU216HW,2013-10-07 09:08:00,
2013-10-07 02:09:00,52.2,49.6,29.30,North,0,0.0,0.0,91,0.00,,,0.00,WUHU216HW,2013-10-07 09:09:00,
2013-10-07 02:10:00,52.2,49.6,29.30,North,0,0.0,0.0,91,0.00,,,0.00,WUHU216HW,2013-10-07 09:10:00,
2013-10-07 02:13:00,52.2,49.6,29.30,North,0,0.0,0.0,91,0.00,,,0.00,WUHU216HW,2013-10-07 09:13:00,
2013-10-07 02:14:00,52.2,49.6,29.30,North,0,0.0,0.0,91,0.00,,,0.00,WUHU216HW,2013-10-07 09:14:00,
2013-10-07 02:15:00,52.2,49.6,29.30,North,0,0.0,0.0,91,0.00,,,0.00,WUHU216HW,2013-10-07 09:15:00,
2013-10-07 02:18:00,52.0,49.4,29.30,North,0,0.0,0.0,91,0.00,,,0.00,WUHU216HW,2013-10-07 09:18:00,
2013-10-07 02:19:00,52.0,49.4,29.30,North,0,0.0,0.0,91,0.00,,,0.00,WUHU216HW,2013-10-07 09:19:00,
2013-10-07 02:20:00,52.0,49.4,29.30,North,0,0.0,0.0,91,0.00,,,0.00,WUHU216HW,2013-10-07 09:20:00,
2013-10-07 02:21:00,52.0,49.4,29.30,North,0,0.0,0.0,91,0.00,,,0.00,WUHU216HW,2013-10-07 09:21:00,
2013-10-07 02:23:00,52.0,49.4,29.30,North,0,0.0,0.0,91,0.00,,,0.00,WUHU216HW,2013-10-07 09:23:00,
2013-10-07 02:24:00,52.0,49.4,29.30,North,0,0.0,0.0,91,0.00,,,0.00,WUHU216HW,2013-10-07 09:24:00,
2013-10-07 02:25:00,52.2,49.6,29.30,North,0,0.0,0.0,91,0.00,,,0.00,WUHU216HW,2013-10-07 09:25:00,
2013-10-07 02:26:00,52.0,49.4,29.30,North,0,0.0,0.0,91,0.00,,,0.00,WUHU216HW,2013-10-07 09:26:00,
2013-10-07 02:29:00,52.0,49.4,29.30,North,0,0.0,0.0,91,0.00,,,0.00,WUHU216HW,2013-10-07 09:29:00,
2013-10-07 02:30:00,52.0,49.4,29.29,North,0,0.0,0.0,91,0.00,,,0.00,WUHU216HW,2013-10-07 09:30:00,
2013-10-07 02:32:00,52.0,49.4,29.29,North,0,0.0,0.0,91,0.00,,,0.00,WUHU216HW,2013-10-07 09:32:00,
2013-10-07 02:34:00,52.0,49.4,29.29,North,0,0.0,0.0,91,0.00,,,0.00,WUHU216HW,2013-10-07 09:34:00,
2013-10-07 02:35:00,52.0,49.7,29.30,North,0,0.0,0.0,92,0.00,,,0.00,WUHU216HW,2013-10-07 09:35:00,
2013-10-07 02:37:00,52.0,49.7,29.30,North,0,0.0,0.0,92,0.00,,,0.00,WUHU216HW,2013-10-07 09:37:00,
2013-10-07 02:39:00,52.0,49.7,29.29,North,0,0.0,0.0,92,0.00,,,0.00,WUHU216HW,2013-10-07 09:39:00,
2013-10-07 02:40:00,52.0,49.7,29.29,North,0,0.0,0.0,92,0.00,,,0.00,WUHU216HW,2013-10-07 09:40:00,
2013-10-07 02:41:00,52.0,49.7,29.29,North,0,0.0,0.0,92,0.00,,,0.00,WUHU216HW,2013-10-07 09:41:00,
2013-10-07 02:42:00,52.0,49.7,29.29,North,0,0.0,0.0,92,0.00,,,0.00,WUHU216HW,2013-10-07 09:42:00,
2013-10-07 02:44:00,52.0,49.7,29.29,North,0,0.0,0.0,92,0.00,,,0.00,WUHU216HW,2013-10-07 09:44:00,
2013-10-07 02:46:00,52.0,49.7,29.29,North,0,0.0,0.0,92,0.00,,,0.00,WUHU216HW,2013-10-07 09:46:00,
2013-10-07 02:47:00,52.0,49.7,29.29,North,0,0.0,0.0,92,0.00,,,0.00,WUHU216HW,2013-10-07 09:47:00,
2013-10-07 02:49:00,52.0,49.7,29.29,North,0,0.0,0.0,92,0.00,,,0.00,WUHU216HW,2013-10-07 09:49:00,
2013-10-07 02:50:00,52.0,49.7,29.29,North,0,0.0,0.0,92,0.00,,,0.00,WUHU216HW,2013-10-07 09:50:00,
2013-10-07 02:51:00,52.0,49.7,29.29,North,0,0.0,0.0,92,0.00,,,0.00,WUHU216HW,2013-10-07 09:51:00,
2013-10-07 02:52:00,52.0,49.4,29.29,North,0,0.0,0.0,91,0.00,,,0.00,WUHU216HW,2013-10-07 09:52:00,
2013-10-07 02:54:00,52.0,49.7,29.29,North,0,0.0,0.0,92,0.00,,,0.00,WUHU216HW,2013-10-07 09:54:00,
2013-10-07 02:55:00,52.0,49.7,29.29,North,0,0.0,0.0,92,0.00,,,0.00,WUHU216HW,2013-10-07 09:55:00,
2013-10-07 02:56:00,51.8,49.5,29.29,North,0,0.0,0.0,92,0.00,,,0.00,WUHU216HW,2013-10-07 09:56:00,
2013-10-07 02:57:00,51.8,49.2,29.29,North,0,0.0,0.0,91,0.00,,,0.00,WUHU216HW,2013-10-07 09:57:00,
2013-10-07 02:59:00,51.8,49.5,29.29,North,0,0.0,0.0,92,0.00,,,0.00,WUHU216HW,2013-10-07 09:59:00,
2013-10-07 03:00:00,51.8,49.5,29.29,North,0,0.0,0.0,92,0.00,,,0.00,WUHU216HW,2013-10-07 10:00:00,
2013-10-07 03:02:00,51.8,49.5,29.29,North,0,0.0,0.0,92,0.00,,,0.00,WUHU216HW,2013-10-07 10:02:00,
2013-10-07 03:04:00,51.8,49.5,29.28,North,0,0.0,0.0,92,0.00,,,0.00,WUHU216HW,2013-10-07 10:04:00,
2013-10-07 03:05:00,51.8,49.5,29.28,North,0,0.0,0.0,92,0.00,,,0.00,WUHU216HW,2013-10-07 10:05:00,
2013-10-07 03:07:00,51.8,49.5,29.29,North,0,0.0,0.0,92,0.00,,,0.00,WUHU216HW,2013-10-07 10:07:00,
2013-10-07 03:09:00,51.8,49.5,29.29,North,0,0.0,0.0,92,0.00,,,0.00,WUHU216HW,2013-10-07 10:09:00,
2013-10-07 03:11:00,51.8,49.5,29.29,North,0,0.0,0.0,92,0.00,,,0.00,WUHU216HW,2013-10-07 10:11:00,
2013-10-07 03:12:00,51.8,49.5,29.29,North,0,0.0,0.0,92,0.00,,,0.00,WUHU216HW,2013-10-07 10:12:00,
2013-10-07 03:14:00,51.8,49.5,29.29,North,0,0.0,0.0,92,0.00,,,0.00,WUHU216HW,2013-10-07 10:14:00,
2013-10-07 03:16:00,51.8,49.5,29.29,North,0,0.0,0.0,92,0.00,,,0.00,WUHU216HW,2013-10-07 10:16:00,
2013-10-07 03:17:00,51.8,49.5,29.29,North,0,0.0,0.0,92,0.00,,,0.00,WUHU216HW,2013-10-07 10:17:00,
2013-10-07 03:19:00,51.8,49.5,29.28,North,0,0.0,0.0,92,0.00,,,0.00,WUHU216HW,2013-10-07 10:19:00,
2013-10-07 03:22:00,51.8,49.0,29.28,North,0,0.0,0.0,90,0.00,,,0.00,WUHU216HW,2013-10-07 10:22:00,
2013-10-07 03:23:00,51.8,49.0,29.28,North,0,0.0,0.0,90,0.00,,,0.00,WUHU216HW,2013-10-07 10:23:00,
2013-10-07 03:24:00,51.8,49.0,29.29,North,0,0.0,0.0,90,0.00,,,0.00,WUHU216HW,2013-10-07 10:24:00,
2013-10-07 03:27:00,51.7,48.8,29.29,North,0,0.0,0.0,90,0.00,,,0.00,WUHU216HW,2013-10-07 10:27:00,
2013-10-07 03:28:00,51.7,48.8,29.29,North,0,0.0,0.0,90,0.00,,,0.00,WUHU216HW,2013-10-07 10:28:00,
2013-10-07 03:30:00,51.7,48.8,29.29,North,0,0.0,0.0,90,0.00,,,0.00,WUHU216HW,2013-10-07 10:30:00,
2013-10-07 03:33:00,51.7,48.8,29.29,North,0,0.0,0.0,90,0.00,,,0.00,WUHU216HW,2013-10-07 10:33:00,
2013-10-07 03:35:00,51.7,48.8,29.29,North,0,0.0,0.0,90,0.00,,,0.00,WUHU216HW,2013-10-07 10:35:00,
2013-10-07 03:38:00,51.5,48.6,29.29,North,0,0.0,0.0,90,0.00,,,0.00,WUHU216HW,2013-10-07 10:38:00,
2013-10-07 03:40:00,51.7,48.8,29.29,North,0,0.0,0.0,90,0.00,,,0.00,WUHU216HW,2013-10-07 10:40:00,
2013-10-07 03:43:00,51.5,48.6,29.29,North,0,0.0,0.0,90,0.00,,,0.00,WUHU216HW,2013-10-07 10:43:00,
2013-10-07 03:44:00,51.5,48.6,29.29,North,0,0.0,0.0,90,0.00,,,0.00,WUHU216HW,2013-10-07 10:44:00,
2013-10-07 03:45:00,51.5,48.6,29.29,North,0,0.0,0.0,90,0.00,,,0.00,WUHU216HW,2013-10-07 10:45:00,
2013-10-07 03:48:00,51.5,48.6,29.29,North,0,0.0,0.0,90,0.00,,,0.00,WUHU216HW,2013-10-07 10:48:00,
2013-10-07 03:49:00,51.5,48.6,29.29,North,0,0.0,0.0,90,0.00,,,0.00,WUHU216HW,2013-10-07 10:49:00,
2013-10-07 03:50:00,51.5,48.6,29.29,North,0,0.0,0.0,90,0.00,,,0.00,WUHU216HW,2013-10-07 10:50:00,
2013-10-07 03:53:00,51.5,48.6,29.29,North,0,0.0,0.0,90,0.01,,,0.02,WUHU216HW,2013-10-07 10:53:00,
2013-10-07 03:54:00,51.5,48.6,29.29,North,0,0.0,0.0,90,0.01,,,0.02,WUHU216HW,2013-10-07 10:54:00,
2013-10-07 03:55:00,51.3,48.4,29.29,North,0,0.0,0.0,90,0.01,,,0.02,WUHU216HW,2013-10-07 10:55:00,
2013-10-07 03:58:00,51.3,48.4,29.29,North,0,0.0,0.0,90,0.01,,,0.02,WUHU216HW,2013-10-07 10:58:00,
2013-10-07 03:59:00,51.3,48.4,29.29,North,0,0.0,0.0,90,0.01,,,0.02,WUHU216HW,2013-10-07 10:59:00,
2013-10-07 04:00:00,51.3,48.4,29.29,North,0,0.0,0.0,90,0.01,,,0.02,WUHU216HW,2013-10-07 11:00:00,
2013-10-07 04:01:00,51.3,48.4,29.29,North,0,0.0,0.0,90,0.01,,,0.02,WUHU216HW,2013-10-07 11:01:00,
2013-10-07 04:03:00,51.3,48.4,29.29,North,0,0.0,0.0,90,0.01,,,0.02,WUHU216HW,2013-10-07 11:03:00,
2013-10-07 04:04:00,51.3,48.4,29.29,North,0,0.0,0.0,90,0.01,,,0.02,WUHU216HW,2013-10-07 11:04:00,
2013-10-07 04:05:00,51.3,48.4,29.29,North,0,0.0,0.0,90,0.01,,,0.02,WUHU216HW,2013-10-07 11:05:00,
2013-10-07 04:06:00,51.3,48.4,29.29,North,0,0.0,0.0,90,0.01,,,0.02,WUHU216HW,2013-10-07 11:06:00,
2013-10-07 04:08:00,51.3,48.7,29.29,North,0,0.0,0.0,91,0.01,,,0.02,WUHU216HW,2013-10-07 11:08:00,
2013-10-07 04:09:00,51.3,48.4,29.29,North,0,0.0,0.0,90,0.01,,,0.02,WUHU216HW,2013-10-07 11:09:00,
2013-10-07 04:10:00,51.3,48.4,29.29,North,0,0.0,0.0,90,0.01,,,0.02,WUHU216HW,2013-10-07 11:10:00,
2013-10-07 04:11:00,51.3,48.7,29.29,North,0,0.0,0.0,91,0.01,,,0.02,WUHU216HW,2013-10-07 11:11:00,
2013-10-07 04:13:00,51.3,48.7,29.29,North,0,0.0,0.0,91,0.01,,,0.02,WUHU216HW,2013-10-07 11:13:00,
2013-10-07 04:14:00,51.3,48.7,29.29,North,0,0.0,0.0,91,0.01,,,0.02,WUHU216HW,2013-10-07 11:14:00,
2013-10-07 04:15:00,51.3,48.7,29.29,North,0,0.0,0.0,91,0.01,,,0.02,WUHU216HW,2013-10-07 11:15:00,
2013-10-07 04:16:00,51.3,48.7,29.29,North,0,0.0,0.0,91,0.01,,,0.02,WUHU216HW,2013-10-07 11:16:00,
2013-10-07 04:19:00,51.3,48.7,29.29,North,0,0.0,0.0,91,0.01,,,0.02,WUHU216HW,2013-10-07 11:19:00,
2013-10-07 04:20:00,51.3,48.7,29.29,North,0,0.0,0.0,91,0.01,,,0.02,WUHU216HW,2013-10-07 11:20:00,
2013-10-07 04:21:00,51.3,48.7,29.29,North,0,0.0,0.0,91,0.01,,,0.02,WUHU216HW,2013-10-07 11:21:00,
2013-10-07 04:24:00,51.1,48.5,29.29,North,0,0.0,0.0,91,0.01,,,0.02,WUHU216HW,2013-10-07 11:24:00,
2013-10-07 04:25:00,51.1,48.5,29.29,North,0,0.0,0.0,91,0.01,,,0.02,WUHU216HW,2013-10-07 11:25:00,
2013-10-07 04:26:00,51.1,48.5,29.29,North,0,0.0,0.0,91,0.01,,,0.02,WUHU216HW,2013-10-07 11:26:00,
2013-10-07 04:29:00,51.1,48.5,29.29,North,0,0.0,0.0,91,0.01,,,0.02,WUHU216HW,2013-10-07 11:29:00,
2013-10-07 04:30:00,51.1,48.5,29.29,North,0,0.0,0.0,91,0.01,,,0.02,WUHU216HW,2013-10-07 11:30:00,
2013-10-07 04:31:00,51.1,48.5,29.29,North,0,0.0,0.0,91,0.01,,,0.02,WUHU216HW,2013-10-07 11:31:00,
2013-10-07 04:32:00,51.1,48.5,29.29,North,0,0.0,0.0,91,0.01,,,0.02,WUHU216HW,2013-10-07 11:32:00,
2013-10-07 04:34:00,51.1,48.5,29.29,North,0,0.0,0.0,91,0.01,,,0.02,WUHU216HW,2013-10-07 11:34:00,
2013-10-07 04:36:00,51.1,48.5,29.29,North,0,0.0,0.0,91,0.01,,,0.02,WUHU216HW,2013-10-07 11:36:00,
2013-10-07 04:37:00,51.1,48.5,29.29,North,0,0.0,0.0,91,0.01,,,0.02,WUHU216HW,2013-10-07 11:37:00,
2013-10-07 04:39:00,51.1,48.5,29.29,North,0,0.0,0.0,91,0.01,,,0.02,WUHU216HW,2013-10-07 11:39:00,
2013-10-07 04:41:00,51.1,48.2,29.29,North,0,0.0,0.0,90,0.01,,,0.02,WUHU216HW,2013-10-07 11:41:00,
2013-10-07 04:43:00,50.9,48.1,29.29,North,0,0.0,0.0,90,0.01,,,0.02,WUHU216HW,2013-10-07 11:43:00,
2013-10-07 04:44:00,50.9,48.1,29.29,North,0,0.0,0.0,90,0.01,,,0.02,WUHU216HW,2013-10-07 11:44:00,
2013-10-07 04:46:00,50.9,48.1,29.29,North,0,0.0,0.0,90,0.01,,,0.02,WUHU216HW,2013-10-07 11:46:00,
2013-10-07 04:47:00,50.9,48.1,29.29,North,0,0.0,0.0,90,0.01,,,0.02,WUHU216HW,2013-10-07 11:47:00,
2013-10-07 04:48:00,50.9,48.1,29.29,North,0,0.0,0.0,90,0.01,,,0.02,WUHU216HW,2013-10-07 11:48:00,
2013-10-07 04:49:00,50.8,47.9,29.29,North,0,0.0,0.0,90,0.01,,,0.02,WUHU216HW,2013-10-07 11:49:00,
2013-10-07 04:50:00,50.9,48.1,29.29,North,0,0.0,0.0,90,0.01,,,0.02,WUHU216HW,2013-10-07 11:50:00,
2013-10-07 04:52:00,50.8,47.9,29.29,North,0,0.0,0.0,90,0.00,,,0.02,WUHU216HW,2013-10-07 11:52:00,
2013-10-07 04:54:00,50.8,47.9,29.29,North,0,0.0,0.0,90,0.00,,,0.02,WUHU216HW,2013-10-07 11:54:00,
2013-10-07 04:55:00,50.8,47.9,29.29,North,0,0.0,0.0,90,0.00,,,0.02,WUHU216HW,2013-10-07 11:55:00,
2013-10-07 04:57:00,50.8,47.9,29.29,North,0,0.0,0.0,90,0.00,,,0.02,WUHU216HW,2013-10-07 11:57:00,
2013-10-07 04:58:00,50.8,47.9,29.29,North,0,0.0,0.0,90,0.00,,,0.02,WUHU216HW,2013-10-07 11:58:00,
2013-10-07 04:59:00,50.8,47.9,29.29,North,0,0.0,0.0,90,0.00,,,0.02,WUHU216HW,2013-10-07 11:59:00,
2013-10-07 05:00:00,50.8,47.9,29.29,North,0,0.0,0.0,90,0.00,,,0.02,WUHU216HW,2013-10-07 12:00:00,
2013-10-07 05:03:00,50.8,48.2,29.29,North,0,0.0,0.0,91,0.00,,,0.02,WUHU216HW,2013-10-07 12:03:00,
2013-10-07 05:04:00,50.8,48.2,29.29,North,0,0.0,0.0,91,0.00,,,0.02,WUHU216HW,2013-10-07 12:04:00,
2013-10-07 05:05:00,50.8,48.2,29.29,North,0,0.0,0.0,91,0.00,,,0.02,WUHU216HW,2013-10-07 12:05:00,
2013-10-07 05:08:00,50.8,48.2,29.29,North,0,0.0,0.0,91,0.00,,,0.02,WUHU216HW,2013-10-07 12:08:00,
2013-10-07 05:09:00,50.8,48.2,29.29,North,0,0.0,0.0,91,0.00,,,0.02,WUHU216HW,2013-10-07 12:09:00,
2013-10-07 05:10:00,50.8,48.2,29.29,North,0,0.0,0.0,91,0.00,,,0.02,WUHU216HW,2013-10-07 12:10:00,
2013-10-07 05:13:00,50.8,48.2,29.28,North,0,0.0,0.0,91,0.00,,,0.02,WUHU216HW,2013-10-07 12:13:00,
2013-10-07 05:14:00,50.8,48.2,29.28,North,0,0.0,0.0,91,0.00,,,0.02,WUHU216HW,2013-10-07 12:14:00,
2013-10-07 05:15:00,50.8,47.9,29.28,North,0,0.0,0.0,90,0.00,,,0.02,WUHU216HW,2013-10-07 12:15:00,
2013-10-07 05:16:00,50.8,47.9,29.28,North,0,0.0,0.0,90,0.00,,,0.02,WUHU216HW,2013-10-07 12:16:00,
2013-10-07 05:18:00,50.8,48.2,29.28,North,0,0.0,0.0,91,0.00,,,0.02,WUHU216HW,2013-10-07 12:18:00,
2013-10-07 05:19:00,50.8,48.2,29.28,North,0,0.0,0.0,91,0.00,,,0.02,WUHU216HW,2013-10-07 12:19:00,
2013-10-07 05:20:00,50.8,48.2,29.28,North,0,0.0,0.0,91,0.00,,,0.02,WUHU216HW,2013-10-07 12:20:00,
2013-10-07 05:21:00,50.8,48.2,29.28,North,0,0.0,0.0,91,0.00,,,0.02,WUHU216HW,2013-10-07 12:21:00,
2013-10-07 05:23:00,50.8,48.2,29.28,North,0,0.0,0.0,91,0.00,,,0.02,WUHU216HW,2013-10-07 12:23:00,
2013-10-07 05:25:00,50.8,48.2,29.29,North,0,0.0,0.0,91,0.00,,,0.02,WUHU216HW,2013-10-07 12:25:00,
2013-10-07 05:26:00,50.8,48.2,29.29,North,0,0.0,0.0,91,0.00,,,0.02,WUHU216HW,2013-10-07 12:26:00,
2013-10-07 05:28:00,50.8,48.2,29.28,North,0,0.0,0.0,91,0.00,,,0.02,WUHU216HW,2013-10-07 12:28:00,
2013-10-07 05:29:00,50.8,48.2,29.28,North,0,0.0,0.0,91,0.00,,,0.02,WUHU216HW,2013-10-07 12:29:00,
2013-10-07 05:30:00,50.8,48.2,29.29,North,0,0.0,0.0,91,0.00,,,0.02,WUHU216HW,2013-10-07 12:30:00,
2013-10-07 05:31:00,50.8,48.2,29.29,North,0,0.0,0.0,91,0.00,,,0.02,WUHU216HW,2013-10-07 12:31:00,
2013-10-07 05:33:00,50.8,48.2,29.29,North,0,0.0,0.0,91,0.00,,,0.02,WUHU216HW,2013-10-07 12:33:00,
2013-10-07 05:34:00,50.8,48.2,29.29,North,0,0.0,0.0,91,0.00,,,0.02,WUHU216HW,2013-10-07 12:34:00,
2013-10-07 05:35:00,50.8,47.9,29.29,North,0,0.0,0.0,90,0.00,,,0.02,WUHU216HW,2013-10-07 12:35:00,
2013-10-07 05:36:00,50.8,47.9,29.29,North,0,0.0,0.0,90,0.00,,,0.02,WUHU216HW,2013-10-07 12:36:00,
2013-10-07 05:38:00,50.8,47.9,29.29,North,0,0.0,0.0,90,0.00,,,0.02,WUHU216HW,2013-10-07 12:38:00,
2013-10-07 05:39:00,50.8,47.9,29.29,North,0,0.0,0.0,90,0.00,,,0.02,WUHU216HW,2013-10-07 12:39:00,
2013-10-07 05:41:00,50.8,47.9,29.29,North,0,0.0,0.0,90,0.00,,,0.02,WUHU216HW,2013-10-07 12:41:00,
2013-10-07 05:43:00,50.8,47.9,29.29,North,0,0.0,0.0,90,0.00,,,0.02,WUHU216HW,2013-10-07 12:43:00,
2013-10-07 05:44:00,50.8,47.9,29.29,North,0,0.0,0.0,90,0.00,,,0.02,WUHU216HW,2013-10-07 12:44:00,
2013-10-07 05:46:00,50.8,47.9,29.29,North,0,0.0,0.0,90,0.00,,,0.02,WUHU216HW,2013-10-07 12:46:00,
2013-10-07 05:47:00,50.8,47.9,29.29,North,0,0.0,0.0,90,0.00,,,0.02,WUHU216HW,2013-10-07 12:47:00,
2013-10-07 05:49:00,50.8,47.9,29.29,North,0,0.0,0.0,90,0.00,,,0.02,WUHU216HW,2013-10-07 12:49:00,
2013-10-07 05:50:00,50.8,47.9,29.29,North,0,0.0,0.0,90,0.00,,,0.02,WUHU216HW,2013-10-07 12:50:00,
2013-10-07 05:51:00,50.8,47.9,29.29,North,0,0.0,0.0,90,0.00,,,0.02,WUHU216HW,2013-10-07 12:51:00,
2013-10-07 05:52:00,50.8,47.9,29.29,North,0,0.0,0.0,90,0.00,,,0.02,WUHU216HW,2013-10-07 12:52:00,
2013-10-07 05:54:00,50.8,47.9,29.29,North,0,0.0,0.0,90,0.00,,,0.02,WUHU216HW,2013-10-07 12:54:00,
2013-10-07 05:55:00,50.9,48.1,29.29,North,0,0.0,0.0,90,0.00,,,0.02,WUHU216HW,2013-10-07 12:55:00,
2013-10-07 05:56:00,50.9,48.1,29.29,North,0,0.0,0.0,90,0.00,,,0.02,WUHU216HW,2013-10-07 12:56:00,
2013-10-07 05:57:00,50.9,48.1,29.29,North,0,0.0,0.0,90,0.00,,,0.02,WUHU216HW,2013-10-07 12:57:00,
2013-10-07 05:59:00,50.9,48.1,29.29,North,0,0.0,0.0,90,0.00,,,0.02,WUHU216HW,2013-10-07 12:59:00,
2013-10-07 06:01:00,50.9,48.1,29.29,North,0,0.0,0.0,90,0.00,,,0.02,WUHU216HW,2013-10-07 13:01:00,
2013-10-07 06:02:00,50.9,48.1,29.29,North,0,0.0,0.0,90,0.00,,,0.02,WUHU216HW,2013-10-07 13:02:00,
2013-10-07 06:03:00,50.9,48.1,29.29,North,0,0.0,0.0,90,0.00,,,0.02,WUHU216HW,2013-10-07 13:03:00,
2013-10-07 06:04:00,50.9,48.1,29.29,North,0,0.0,0.0,90,0.00,,,0.02,WUHU216HW,2013-10-07 13:04:00,
2013-10-07 06:06:00,50.9,48.1,29.29,North,0,0.0,0.0,90,0.00,,,0.02,WUHU216HW,2013-10-07 13:06:00,
2013-10-07 06:07:00,50.9,48.1,29.29,North,0,0.0,0.0,90,0.00,,,0.02,WUHU216HW,2013-10-07 13:07:00,
2013-10-07 06:08:00,50.9,48.1,29.29,North,0,0.0,0.0,90,0.00,,,0.02,WUHU216HW,2013-10-07 13:08:00,
2013-10-07 06:09:00,50.9,48.1,29.29,North,0,0.0,0.0,90,0.00,,,0.02,WUHU216HW,2013-10-07 13:09:00,
2013-10-07 06:11:00,50.9,48.1,29.29,North,0,0.0,0.0,90,0.00,,,0.02,WUHU216HW,2013-10-07 13:11:00,
2013-10-07 06:13:00,50.9,48.1,29.29,North,0,0.0,0.0,90,0.00,,,0.02,WUHU216HW,2013-10-07 13:13:00,
2013-10-07 06:14:00,50.9,48.1,29.30,North,0,0.0,0.0,90,0.00,,,0.02,WUHU216HW,2013-10-07 13:14:00,
2013-10-07 06:17:00,50.9,48.1,29.29,North,0,0.0,0.0,90,0.00,,,0.02,WUHU216HW,2013-10-07 13:17:00,
2013-10-07 06:18:00,50.9,48.1,29.29,North,0,0.0,0.0,90,0.00,,,0.02,WUHU216HW,2013-10-07 13:18:00,
2013-10-07 06:19:00,50.9,48.1,29.29,North,0,0.0,0.0,90,0.00,,,0.02,WUHU216HW,2013-10-07 13:19:00,
2013-10-07 06:22:00,51.1,48.2,29.29,North,0,0.0,0.0,90,0.00,,,0.02,WUHU216HW,2013-10-07 13:22:00,
2013-10-07 06:23:00,51.1,48.2,29.30,North,0,0.0,0.0,90,0.00,,,0.02,WUHU216HW,2013-10-07 13:23:00,
2013-10-07 06:24:00,51.1,48.2,29.30,North,0,0.0,0.0,90,0.00,,,0.02,WUHU216HW,2013-10-07 13:24:00,
2013-10-07 06:25:00,50.9,48.1,29.30,North,0,0.0,0.0,90,0.00,,,0.02,WUHU216HW,2013-10-07 13:25:00,
2013-10-07 06:27:00,51.1,48.2,29.30,North,0,0.0,0.0,90,0.00,,,0.02,WUHU216HW,2013-10-07 13:27:00,
2013-10-07 06:29:00,51.1,48.2,29.30,North,0,0.0,0.0,90,0.00,,,0.02,WUHU216HW,2013-10-07 13:29:00,
2013-10-07 06:30:00,51.1,48.2,29.30,North,0,0.0,0.0,90,0.00,,,0.02,WUHU216HW,2013-10-07 13:30:00,
2013-10-07 06:32:00,51.1,48.2,29.30,North,0,0.0,0.0,90,0.00,,,0.02,WUHU216HW,2013-10-07 13:32:00,
2013-10-07 06:34:00,51.1,48.2,29.30,North,0,0.0,0.0,90,0.00,,,0.02,WUHU216HW,2013-10-07 13:34:00,
2013-10-07 06:35:00,51.1,48.2,29.30,North,0,0.0,0.0,90,0.00,,,0.02,WUHU216HW,2013-10-07 13:35:00,
2013-10-07 06:37:00,51.1,48.2,29.30,North,0,0.0,0.0,90,0.00,,,0.02,WUHU216HW,2013-10-07 13:37:00,
2013-10-07 06:38:00,51.1,48.2,29.30,North,0,0.0,0.0,90,0.00,,,0.02,WUHU216HW,2013-10-07 13:38:00,
2013-10-07 06:39:00,51.1,48.2,29.30,North,0,0.0,0.0,90,0.00,,,0.02,WUHU216HW,2013-10-07 13:39:00,
2013-10-07 06:40:00,51.1,48.2,29.30,North,0,0.0,0.0,90,0.00,,,0.02,WUHU216HW,2013-10-07 13:40:00,
2013-10-07 06:43:00,51.1,48.2,29.30,North,0,0.0,0.0,90,0.00,,,0.02,WUHU216HW,2013-10-07 13:43:00,
2013-10-07 06:44:00,51.1,48.2,29.30,North,0,0.0,0.0,90,0.00,,,0.02,WUHU216HW,2013-10-07 13:44:00,
2013-10-07 06:45:00,51.1,48.2,29.30,North,0,0.0,0.0,90,0.00,,,0.02,WUHU216HW,2013-10-07 13:45:00,
2013-10-07 06:48:00,51.1,48.2,29.30,North,0,0.0,0.0,90,0.00,,,0.02,WUHU216HW,2013-10-07 13:48:00,
2013-10-07 06:50:00,51.3,48.4,29.30,North,0,0.0,0.0,90,0.00,,,0.02,WUHU216HW,2013-10-07 13:50:00,
2013-10-07 06:51:00,51.3,48.4,29.30,North,0,0.0,0.0,90,0.00,,,0.02,WUHU216HW,2013-10-07 13:51:00,
2013-10-07 06:53:00,51.3,48.4,29.30,North,0,0.0,0.0,90,0.00,,,0.02,WUHU216HW,2013-10-07 13:53:00,
2013-10-07 06:55:00,51.3,48.4,29.30,North,0,0.0,0.0,90,0.00,,,0.02,WUHU216HW,2013-10-07 13:55:00,
2013-10-07 06:56:00,51.3,48.2,29.30,North,0,0.0,0.0,89,0.00,,,0.02,WUHU216HW,2013-10-07 13:56:00,
2013-10-07 06:58:00,51.3,48.4,29.30,North,0,0.0,0.0,90,0.00,,,0.02,WUHU216HW,2013-10-07 13:58:00,
2013-10-07 07:00:00,51.1,48.0,29.30,North,0,0.0,0.0,89,0.00,,,0.02,WUHU216HW,2013-10-07 14:00:00,
2013-10-07 07:01:00,51.1,48.0,29.30,North,0,0.0,0.0,89,0.00,,,0.02,WUHU216HW,2013-10-07 14:01:00,
2013-10-07 07:03:00,51.1,48.0,29.30,North,0,0.0,0.0,89,0.00,,,0.02,WUHU216HW,2013-10-07 14:03:00,
2013-10-07 07:05:00,51.1,48.0,29.30,North,0,0.0,0.0,89,0.00,,,0.02,WUHU216HW,2013-10-07 14:05:00,
2013-10-07 07:06:00,51.1,48.0,29.30,North,0,0.0,0.0,89,0.00,,,0.02,WUHU216HW,2013-10-07 14:06:00,
2013-10-07 07:08:00,51.1,48.2,29.30,North,0,0.0,0.0,90,0.00,,,0.02,WUHU216HW,2013-10-07 14:08:00,
2013-10-07 07:10:00,51.1,48.2,29.30,North,0,0.0,0.0,90,0.00,,,0.02,WUHU216HW,2013-10-07 14:10:00,
2013-10-07 07:11:00,51.1,48.2,29.30,North,0,0.0,0.0,90,0.00,,,0.02,WUHU216HW,2013-10-07 14:11:00,
2013-10-07 07:13:00,51.3,48.2,29.30,North,0,0.0,0.0,89,0.00,,,0.02,WUHU216HW,2013-10-07 14:13:00,
2013-10-07 07:15:00,51.3,48.2,29.30,North,0,0.0,0.0,89,0.00,,,0.02,WUHU216HW,2013-10-07 14:15:00,
2013-10-07 07:16:00,51.3,48.2,29.30,North,0,0.0,0.0,89,0.00,,,0.02,WUHU216HW,2013-10-07 14:16:00,
2013-10-07 07:18:00,51.3,48.2,29.30,North,0,0.0,0.0,89,0.00,,,0.02,WUHU216HW,2013-10-07 14:18:00,
2013-10-07 07:20:00,51.3,48.2,29.31,North,0,0.0,0.0,89,0.00,,,0.02,WUHU216HW,2013-10-07 14:20:00,
2013-10-07 07:21:00,51.3,48.2,29.31,North,0,0.0,0.0,89,0.00,,,0.02,WUHU216HW,2013-10-07 14:21:00,
2013-10-07 07:22:00,51.5,48.3,29.31,North,0,0.0,0.0,89,0.00,,,0.02,WUHU216HW,2013-10-07 14:22:00,
2013-10-07 07:23:00,51.5,48.6,29.31,North,0,0.0,0.0,90,0.00,,,0.02,WUHU216HW,2013-10-07 14:23:00,
2013-10-07 07:26:00,51.5,48.3,29.30,North,0,0.0,0.0,89,0.00,,,0.02,WUHU216HW,2013-10-07 14:26:00,
2013-10-07 07:28:00,51.5,48.3,29.30,North,0,0.0,0.0,89,0.00,,,0.02,WUHU216HW,2013-10-07 14:28:00,
2013-10-07 07:29:00,51.5,48.3,29.30,North,0,0.0,0.0,89,0.00,,,0.02,WUHU216HW,2013-10-07 14:29:00,
2013-10-07 07:31:00,51.5,48.3,29.31,North,0,0.0,0.0,89,0.00,,,0.02,WUHU216HW,2013-10-07 14:31:00,
2013-10-07 07:32:00,51.5,48.3,29.31,North,0,0.0,0.0,89,0.00,,,0.02,WUHU216HW,2013-10-07 14:32:00,
2013-10-07 07:33:00,51.5,48.3,29.31,North,0,0.0,0.0,89,0.00,,,0.02,WUHU216HW,2013-10-07 14:33:00,
2013-10-07 07:34:00,51.5,48.3,29.30,North,0,0.0,0.0,89,0.00,,,0.02,WUHU216HW,2013-10-07 14:34:00,
2013-10-07 07:36:00,51.5,48.3,29.31,North,0,0.0,0.0,89,0.00,,,0.02,WUHU216HW,2013-10-07 14:36:00,
2013-10-07 07:37:00,51.5,48.3,29.31,North,0,0.0,0.0,89,0.00,,,0.02,WUHU216HW,2013-10-07 14:37:00,
2013-10-07 07:38:00,51.5,48.3,29.31,North,0,0.0,0.0,89,0.00,,,0.02,WUHU216HW,2013-10-07 14:38:00,
2013-10-07 07:39:00,51.5,48.3,29.31,North,0,0.0,0.0,89,0.00,,,0.02,WUHU216HW,2013-10-07 14:39:00,
2013-10-07 07:42:00,51.5,48.3,29.31,North,0,0.0,0.0,89,0.00,,,0.02,WUHU216HW,2013-10-07 14:42:00,
2013-10-07 07:43:00,51.5,48.3,29.31,North,0,0.0,0.0,89,0.00,,,0.02,WUHU216HW,2013-10-07 14:43:00,
2013-10-07 07:44:00,51.5,48.3,29.31,North,0,0.0,0.0,89,0.00,,,0.02,WUHU216HW,2013-10-07 14:44:00,
2013-10-07 07:47:00,51.5,48.3,29.31,North,0,0.0,0.0,89,0.00,,,0.02,WUHU216HW,2013-10-07 14:47:00,
2013-10-07 07:48:00,51.5,48.3,29.31,North,0,0.0,0.0,89,0.00,,,0.02,WUHU216HW,2013-10-07 14:48:00,
2013-10-07 07:49:00,51.5,48.3,29.31,North,0,0.0,0.0,89,0.00,,,0.02,WUHU216HW,2013-10-07 14:49:00,
2013-10-07 07:52:00,51.5,48.3,29.30,North,0,0.0,0.0,89,0.00,,,0.02,WUHU216HW,2013-10-07 14:52:00,
2013-10-07 07:53:00,51.5,48.3,29.31,North,0,0.0,0.0,89,0.00,,,0.02,WUHU216HW,2013-10-07 14:53:00,
2013-10-07 07:54:00,51.5,48.3,29.31,North,0,0.0,0.0,89,0.00,,,0.02,WUHU216HW,2013-10-07 14:54:00,
2013-10-07 07:57:00,51.5,48.6,29.31,North,0,0.0,0.0,90,0.00,,,0.02,WUHU216HW,2013-10-07 14:57:00,
2013-10-07 07:58:00,51.5,48.6,29.31,North,0,0.0,0.0,90,0.00,,,0.02,WUHU216HW,2013-10-07 14:58:00,
2013-10-07 07:59:00,51.5,48.3,29.31,North,0,0.0,0.0,89,0.00,,,0.02,WUHU216HW,2013-10-07 14:59:00,
2013-10-07 08:00:00,51.5,48.3,29.31,North,0,0.0,0.0,89,0.00,,,0.02,WUHU216HW,2013-10-07 15:00:00,
2013-10-07 08:02:00,51.5,48.6,29.31,North,0,0.0,0.0,90,0.00,,,0.02,WUHU216HW,2013-10-07 15:02:00,
2013-10-07 08:03:00,51.5,48.6,29.31,North,0,0.0,0.0,90,0.00,,,0.02,WUHU216HW,2013-10-07 15:03:00,
2013-10-07 08:05:00,51.5,48.6,29.31,North,0,0.0,0.0,90,0.00,,,0.02,WUHU216HW,2013-10-07 15:05:00,
2013-10-07 08:08:00,51.5,48.6,29.31,North,0,0.0,0.0,90,0.00,,,0.02,WUHU216HW,2013-10-07 15:08:00,
2013-10-07 08:09:00,51.5,48.3,29.31,North,0,0.0,0.0,89,0.00,,,0.02,WUHU216HW,2013-10-07 15:09:00,
2013-10-07 08:10:00,51.5,48.3,29.31,North,0,0.0,0.0,89,0.00,,,0.02,WUHU216HW,2013-10-07 15:10:00,
2013-10-07 08:13:00,51.7,48.5,29.31,North,0,0.0,0.0,89,0.00,,,0.02,WUHU216HW,2013-10-07 15:13:00,
2013-10-07 08:14:00,51.7,48.5,29.31,North,0,0.0,0.0,89,0.00,,,0.02,WUHU216HW,2013-10-07 15:14:00,
2013-10-07 08:15:00,51.7,48.5,29.31,North,0,0.0,0.0,89,0.00,,,0.02,WUHU216HW,2013-10-07 15:15:00,
2013-10-07 08:18:00,51.8,48.7,29.31,North,0,0.0,0.0,89,0.00,,,0.02,WUHU216HW,2013-10-07 15:18:00,
2013-10-07 08:19:00,51.8,48.7,29.31,North,0,0.0,0.0,89,0.00,,,0.02,WUHU216HW,2013-10-07 15:19:00,
2013-10-07 08:20:00,51.8,48.7,29.31,North,0,0.0,0.0,89,0.00,,,0.02,WUHU216HW,2013-10-07 15:20:00,
2013-10-07 08:23:00,52.0,48.9,29.31,North,0,0.0,0.0,89,0.00,,,0.02,WUHU216HW,2013-10-07 15:23:00,
2013-10-07 08:24:00,52.0,48.9,29.31,North,0,0.0,0.0,89,0.00,,,0.02,WUHU216HW,2013-10-07 15:24:00,
2013-10-07 08:25:00,52.2,49.1,29.31,North,0,0.0,0.0,89,0.00,,,0.02,WUHU216HW,2013-10-07 15:25:00,
2013-10-07 08:26:00,52.2,49.1,29.32,North,0,0.0,0.0,89,0.00,,,0.02,WUHU216HW,2013-10-07 15:26:00,
2013-10-07 08:29:00,52.2,49.1,29.31,North,0,0.0,0.0,89,0.00,,,0.02,WUHU216HW,2013-10-07 15:29:00,
2013-10-07 08:30:00,52.2,49.1,29.32,North,0,0.0,0.0,89,0.00,,,0.02,WUHU216HW,2013-10-07 15:30:00,
2013-10-07 08:31:00,52.2,49.1,29.32,North,0,0.0,0.0,89,0.00,,,0.02,WUHU216HW,2013-10-07 15:31:00,
2013-10-07 08:32:00,52.4,49.2,29.32,North,0,0.0,0.0,89,0.00,,,0.02,WUHU216HW,2013-10-07 15:32:00,
2013-10-07 08:34:00,52.4,49.2,29.32,North,0,0.0,0.0,89,0.00,,,0.02,WUHU216HW,2013-10-07 15:34:00,
2013-10-07 08:35:00,52.4,49.2,29.32,North,0,0.0,0.0,89,0.00,,,0.02,WUHU216HW,2013-10-07 15:35:00,
2013-10-07 08:36:00,52.4,49.2,29.32,North,0,0.0,0.0,89,0.00,,,0.02,WUHU216HW,2013-10-07 15:36:00,
2013-10-07 08:37:00,52.6,49.4,29.32,North,0,0.0,0.0,89,0.00,,,0.02,WUHU216HW,2013-10-07 15:37:00,
2013-10-07 08:39:00,52.6,49.4,29.32,North,0,0.0,0.0,89,0.00,,,0.02,WUHU216HW,2013-10-07 15:39:00,
2013-10-07 08:40:00,52.6,49.4,29.32,North,0,0.0,0.0,89,0.00,,,0.02,WUHU216HW,2013-10-07 15:40:00,
2013-10-07 08:41:00,52.6,49.4,29.32,North,0,0.0,0.0,89,0.00,,,0.02,WUHU216HW,2013-10-07 15:41:00,
2013-10-07 08:43:00,52.6,49.1,29.32,North,0,0.0,0.0,88,0.00,,,0.02,WUHU216HW,2013-10-07 15:43:00,
2013-10-07 08:44:00,52.7,49.2,29.32,North,0,0.0,0.0,88,0.00,,,0.02,WUHU216HW,2013-10-07 15:44:00,
2013-10-07 08:45:00,52.7,49.2,29.32,North,0,0.0,0.0,88,0.00,,,0.02,WUHU216HW,2013-10-07 15:45:00,
2013-10-07 08:46:00,52.7,49.2,29.32,North,0,0.0,0.0,88,0.00,,,0.02,WUHU216HW,2013-10-07 15:46:00,
2013-10-07 08:48:00,52.9,49.8,29.32,North,0,0.0,0.0,89,0.00,,,0.02,WUHU216HW,2013-10-07 15:48:00,
2013-10-07 08:49:00,52.7,49.6,29.32,North,0,0.0,0.0,89,0.00,,,0.02,WUHU216HW,2013-10-07 15:49:00,
2013-10-07 08:50:00,52.9,49.8,29.32,North,0,0.0,0.0,89,0.00,,,0.02,WUHU216HW,2013-10-07 15:50:00,
2013-10-07 08:51:00,52.9,49.8,29.32,North,0,0.0,0.0,89,0.00,,,0.02,WUHU216HW,2013-10-07 15:51:00,
2013-10-07 08:53:00,52.9,49.8,29.32,North,0,0.0,0.0,89,0.00,,,0.02,WUHU216HW,2013-10-07 15:53:00,
2013-10-07 08:54:00,52.9,49.8,29.32,North,0,0.0,0.0,89,0.00,,,0.02,WUHU216HW,2013-10-07 15:54:00,
2013-10-07 08:55:00,52.9,49.8,29.32,North,0,0.0,0.0,89,0.00,,,0.02,WUHU216HW,2013-10-07 15:55:00,
2013-10-07 08:56:00,52.9,49.8,29.32,North,0,0.0,0.0,89,0.00,,,0.02,WUHU216HW,2013-10-07 15:56:00,
2013-10-07 08:58:00,52.9,49.4,29.32,North,0,0.0,0.0,88,0.00,,,0.02,WUHU216HW,2013-10-07 15:58:00,
2013-10-07 08:59:00,52.9,49.4,29.32,North,0,0.0,0.0,88,0.00,,,0.02,WUHU216HW,2013-10-07 15:59:00,
2013-10-07 09:00:00,52.9,49.4,29.33,North,0,0.0,0.0,88,0.00,,,0.02,WUHU216HW,2013-10-07 16:00:00,
2013-10-07 09:01:00,52.9,49.4,29.33,North,0,0.0,0.0,88,0.00,,,0.02,WUHU216HW,2013-10-07 16:01:00,
2013-10-07 09:02:00,52.9,49.4,29.33,North,0,0.0,0.0,88,0.00,,,0.02,WUHU216HW,2013-10-07 16:02:00,
2013-10-07 09:03:00,52.9,49.4,29.32,North,0,0.0,0.0,88,0.00,,,0.02,WUHU216HW,2013-10-07 16:03:00,
2013-10-07 09:05:00,52.9,49.4,29.33,North,0,0.0,0.0,88,0.00,,,0.02,WUHU216HW,2013-10-07 16:05:00,
2013-10-07 09:06:00,52.9,49.4,29.33,North,0,0.0,0.0,88,0.00,,,0.02,WUHU216HW,2013-10-07 16:06:00,
2013-10-07 09:07:00,52.7,49.2,29.33,North,0,0.0,0.0,88,0.00,,,0.02,WUHU216HW,2013-10-07 16:07:00,
2013-10-07 09:08:00,52.7,49.2,29.33,North,0,0.0,0.0,88,0.00,,,0.02,WUHU216HW,2013-10-07 16:08:00,
2013-10-07 09:10:00,52.7,49.2,29.33,North,0,0.0,0.0,88,0.00,,,0.02,WUHU216HW,2013-10-07 16:10:00,
2013-10-07 09:11:00,52.9,49.4,29.33,North,0,0.0,0.0,88,0.00,,,0.02,WUHU216HW,2013-10-07 16:11:00,
2013-10-07 09:13:00,52.7,49.2,29.33,North,0,0.0,0.0,88,0.00,,,0.02,WUHU216HW,2013-10-07 16:13:00,
2013-10-07 09:14:00,52.9,49.4,29.33,North,0,0.0,0.0,88,0.00,,,0.02,WUHU216HW,2013-10-07 16:14:00,
2013-10-07 09:15:00,52.9,49.4,29.33,North,0,0.0,0.0,88,0.00,,,0.02,WUHU216HW,2013-10-07 16:15:00,
2013-10-07 09:16:00,52.9,49.4,29.33,North,0,0.0,0.0,88,0.00,,,0.02,WUHU216HW,2013-10-07 16:16:00,
2013-10-07 09:18:00,52.9,49.4,29.33,North,0,0.0,0.0,88,0.00,,,0.02,WUHU216HW,2013-10-07 16:18:00,
2013-10-07 09:20:00,53.1,49.6,29.33,North,0,0.0,0.0,88,0.00,,,0.02,WUHU216HW,2013-10-07 16:20:00,
2013-10-07 09:21:00,53.3,49.8,29.33,North,0,0.0,0.0,88,0.00,,,0.02,WUHU216HW,2013-10-07 16:21:00,
2013-10-07 09:23:00,53.5,49.7,29.33,North,0,0.0,0.0,87,0.00,,,0.02,WUHU216HW,2013-10-07 16:23:00,
2013-10-07 09:25:00,53.5,49.7,29.33,North,0,0.0,0.0,87,0.00,,,0.02,WUHU216HW,2013-10-07 16:25:00,
2013-10-07 09:26:00,53.5,49.7,29.33,North,0,0.0,0.0,87,0.00,,,0.02,WUHU216HW,2013-10-07 16:26:00,
2013-10-07 09:29:00,53.6,49.9,29.33,North,0,0.0,0.0,87,0.00,,,0.02,WUHU216HW,2013-10-07 16:29:00,
2013-10-07 09:30:00,53.6,49.9,29.33,North,0,0.0,0.0,87,0.00,,,0.02,WUHU216HW,2013-10-07 16:30:00,
2013-10-07 09:31:00,53.6,49.9,29.33,North,0,0.0,0.0,87,0.00,,,0.02,WUHU216HW,2013-10-07 16:31:00,
2013-10-07 09:34:00,53.6,49.5,29.33,North,0,0.0,0.0,86,0.00,,,0.02,WUHU216HW,2013-10-07 16:34:00,
2013-10-07 09:35:00,53.8,49.7,29.33,North,0,0.0,0.0,86,0.00,,,0.02,WUHU216HW,2013-10-07 16:35:00,
2013-10-07 09:36:00,53.8,49.7,29.33,North,0,0.0,0.0,86,0.00,,,0.02,WUHU216HW,2013-10-07 16:36:00,
2013-10-07 09:37:00,53.6,49.5,29.33,North,0,0.0,0.0,86,0.00,,,0.02,WUHU216HW,2013-10-07 16:37:00,
2013-10-07 09:39:00,53.6,49.5,29.33,North,0,0.0,0.0,86,0.00,,,0.02,WUHU216HW,2013-10-07 16:39:00,
2013-10-07 09:40:00,53.6,49.5,29.33,North,0,0.0,0.0,86,0.00,,,0.02,WUHU216HW,2013-10-07 16:40:00,
2013-10-07 09:42:00,53.6,49.5,29.33,North,0,0.0,0.0,86,0.00,,,0.02,WUHU216HW,2013-10-07 16:42:00,
2013-10-07 09:44:00,53.6,49.5,29.33,North,0,0.0,0.0,86,0.00,,,0.02,WUHU216HW,2013-10-07 16:44:00,
2013-10-07 09:45:00,53.6,49.5,29.33,North,0,0.0,0.0,86,0.00,,,0.02,WUHU216HW,2013-10-07 16:45:00,
2013-10-07 09:46:00,53.6,49.5,29.33,North,0,0.0,0.0,86,0.00,,,0.02,WUHU216HW,2013-10-07 16:46:00,
2013-10-07 09:47:00,53.6,49.5,29.33,North,0,0.0,0.0,86,0.00,,,0.02,WUHU216HW,2013-10-07 16:47:00,
2013-10-07 09:49:00,53.6,49.5,29.33,North,0,0.0,0.0,86,0.00,,,0.02,WUHU216HW,2013-10-07 16:49:00,
2013-10-07 09:51:00,53.5,49.3,29.33,North,0,0.0,0.0,86,0.00,,,0.02,WUHU216HW,2013-10-07 16:51:00,
2013-10-07 09:52:00,53.5,49.3,29.33,North,0,0.0,0.0,86,0.00,,,0.02,WUHU216HW,2013-10-07 16:52:00,
2013-10-07 09:53:00,53.5,49.3,29.33,North,0,0.0,0.0,86,0.00,,,0.02,WUHU216HW,2013-10-07 16:53:00,
2013-10-07 09:54:00,53.5,49.3,29.34,North,0,0.0,0.0,86,0.00,,,0.02,WUHU216HW,2013-10-07 16:54:00,
2013-10-07 09:55:00,53.5,49.3,29.34,North,0,0.0,0.0,86,0.00,,,0.02,WUHU216HW,2013-10-07 16:55:00,
2013-10-07 09:56:00,53.5,49.3,29.34,North,0,0.0,0.0,86,0.00,,,0.02,WUHU216HW,2013-10-07 16:56:00,
2013-10-07 09:57:00,53.5,49.3,29.34,North,0,0.0,0.0,86,0.00,,,0.02,WUHU216HW,2013-10-07 16:57:00,
2013-10-07 09:58:00,53.5,49.3,29.34,North,0,0.0,0.0,86,0.00,,,0.02,WUHU216HW,2013-10-07 16:58:00,
2013-10-07 09:59:00,53.3,49.1,29.34,North,0,0.0,0.0,86,0.00,,,0.02,WUHU216HW,2013-10-07 16:59:00,
2013-10-07 10:01:00,53.3,49.1,29.34,North,0,0.0,0.0,86,0.00,,,0.02,WUHU216HW,2013-10-07 17:01:00,
2013-10-07 10:02:00,53.3,49.1,29.34,North,0,0.0,0.0,86,0.00,,,0.02,WUHU216HW,2013-10-07 17:02:00,
2013-10-07 10:03:00,53.3,49.1,29.34,North,0,0.0,0.0,86,0.00,,,0.02,WUHU216HW,2013-10-07 17:03:00,
2013-10-07 10:04:00,53.3,49.1,29.34,North,0,0.0,0.0,86,0.00,,,0.02,WUHU216HW,2013-10-07 17:04:00,
2013-10-07 10:06:00,53.3,49.1,29.34,North,0,0.0,0.0,86,0.00,,,0.02,WUHU216HW,2013-10-07 17:06:00,
2013-10-07 10:08:00,53.5,49.3,29.34,North,0,0.0,0.0,86,0.00,,,0.02,WUHU216HW,2013-10-07 17:08:00,
2013-10-07 10:09:00,53.3,49.1,29.34,North,0,0.0,0.0,86,0.00,,,0.02,WUHU216HW,2013-10-07 17:09:00,
2013-10-07 10:11:00,53.3,49.1,29.34,North,0,0.0,0.0,86,0.00,,,0.02,WUHU216HW,2013-10-07 17:11:00,
2013-10-07 10:13:00,53.3,49.1,29.34,North,0,0.0,0.0,86,0.00,,,0.02,WUHU216HW,2013-10-07 17:13:00,
2013-10-07 10:14:00,53.3,49.1,29.34,North,0,0.0,0.0,86,0.00,,,0.02,WUHU216HW,2013-10-07 17:14:00,
2013-10-07 10:16:00,53.5,49.3,29.34,North,0,0.0,0.0,86,0.00,,,0.02,WUHU216HW,2013-10-07 17:16:00,
2013-10-07 10:18:00,53.6,49.5,29.34,North,0,0.0,0.0,86,0.00,,,0.02,WUHU216HW,2013-10-07 17:18:00,
2013-10-07 10:19:00,53.6,49.5,29.34,North,0,0.0,0.0,86,0.00,,,0.02,WUHU216HW,2013-10-07 17:19:00,
2013-10-07 10:20:00,53.6,49.5,29.34,North,0,0.0,0.0,86,0.00,,,0.02,WUHU216HW,2013-10-07 17:20:00,
2013-10-07 10:21:00,53.6,49.5,29.34,North,0,0.0,0.0,86,0.00,,,0.02,WUHU216HW,2013-10-07 17:21:00,
2013-10-07 10:22:00,53.6,49.5,29.34,North,0,0.0,0.0,86,0.00,,,0.02,WUHU216HW,2013-10-07 17:22:00,
2013-10-07 10:23:00,53.8,49.7,29.34,North,0,0.0,0.0,86,0.00,,,0.02,WUHU216HW,2013-10-07 17:23:00,
2013-10-07 10:24:00,53.8,49.7,29.34,North,0,0.0,0.0,86,0.00,,,0.02,WUHU216HW,2013-10-07 17:24:00,
2013-10-07 10:25:00,54.0,49.9,29.34,North,0,0.0,0.0,86,0.00,,,0.02,WUHU216HW,2013-10-07 17:25:00,
2013-10-07 10:26:00,54.0,49.9,29.34,North,0,0.0,0.0,86,0.00,,,0.02,WUHU216HW,2013-10-07 17:26:00,
2013-10-07 10:27:00,54.2,50.0,29.34,North,0,0.0,0.0,86,0.00,,,0.02,WUHU216HW,2013-10-07 17:27:00,
2013-10-07 10:28:00,54.2,49.8,29.34,North,0,0.0,0.0,85,0.00,,,0.02,WUHU216HW,2013-10-07 17:28:00,
2013-10-07 10:29:00,54.2,49.8,29.34,North,0,0.0,0.0,85,0.00,,,0.02,WUHU216HW,2013-10-07 17:29:00,
2013-10-07 10:30:00,54.4,50.0,29.35,North,0,0.0,0.0,85,0.00,,,0.02,WUHU216HW,2013-10-07 17:30:00,
2013-10-07 10:31:00,54.4,50.0,29.35,North,0,0.0,0.0,85,0.00,,,0.02,WUHU216HW,2013-10-07 17:31:00,
2013-10-07 10:33:00,54.2,49.8,29.35,North,0,0.0,0.0,85,0.00,,,0.02,WUHU216HW,2013-10-07 17:33:00,
2013-10-07 10:34:00,54.4,49.6,29.35,North,0,0.0,0.0,84,0.00,,,0.02,WUHU216HW,2013-10-07 17:34:00,
2013-10-07 10:36:00,54.4,49.6,29.35,North,0,0.0,0.0,84,0.00,,,0.02,WUHU216HW,2013-10-07 17:36:00,
2013-10-07 10:37:00,54.4,49.6,29.35,North,0,0.0,0.0,84,0.00,,,0.02,WUHU216HW,2013-10-07 17:37:00,
2013-10-07 10:38:00,54.5,49.8,29.35,North,0,0.0,0.0,84,0.00,,,0.02,WUHU216HW,2013-10-07 17:38:00,
2013-10-07 10:39:00,54.5,49.8,29.35,North,0,0.0,0.0,84,0.00,,,0.02,WUHU216HW,2013-10-07 17:39:00,
2013-10-07 10:40:00,54.5,49.8,29.35,North,0,0.0,0.0,84,0.00,,,0.02,WUHU216HW,2013-10-07 17:40:00,
2013-10-07 10:42:00,54.5,49.8,29.35,North,0,0.0,0.0,84,0.00,,,0.02,WUHU216HW,2013-10-07 17:42:00,
2013-10-07 10:44:00,54.5,49.4,29.35,North,0,0.0,0.0,83,0.00,,,0.02,WUHU216HW,2013-10-07 17:44:00,
2013-10-07 10:45:00,54.5,49.8,29.35,North,0,0.0,0.0,84,0.00,,,0.02,WUHU216HW,2013-10-07 17:45:00,
2013-10-07 10:47:00,54.7,50.0,29.34,North,0,0.0,0.0,84,0.00,,,0.02,WUHU216HW,2013-10-07 17:47:00,
2013-10-07 10:48:00,54.7,49.3,29.34,North,0,0.0,0.0,82,0.00,,,0.02,WUHU216HW,2013-10-07 17:48:00,
2013-10-07 10:49:00,54.7,49.6,29.34,North,0,0.0,0.0,83,0.00,,,0.02,WUHU216HW,2013-10-07 17:49:00,
2013-10-07 10:50:00,54.7,49.6,29.35,North,0,0.0,0.0,83,0.00,,,0.02,WUHU216HW,2013-10-07 17:50:00,
2013-10-07 10:52:00,54.7,49.6,29.35,North,0,0.0,0.0,83,0.00,,,0.02,WUHU216HW,2013-10-07 17:52:00,
2013-10-07 10:54:00,54.7,49.3,29.35,North,0,0.0,0.0,82,0.00,,,0.02,WUHU216HW,2013-10-07 17:54:00,
2013-10-07 10:55:00,54.9,49.5,29.35,North,0,0.0,0.0,82,0.00,,,0.02,WUHU216HW,2013-10-07 17:55:00,
2013-10-07 10:57:00,54.9,49.5,29.35,North,0,0.0,0.0,82,0.00,,,0.02,WUHU216HW,2013-10-07 17:57:00,
2013-10-07 10:59:00,55.1,49.7,29.35,North,0,0.0,0.0,82,0.00,,,0.02,WUHU216HW,2013-10-07 17:59:00,
2013-10-07 11:01:00,55.1,49.3,29.35,North,0,0.0,0.0,81,0.00,,,0.02,WUHU216HW,2013-10-07 18:01:00,
2013-10-07 11:02:00,55.1,49.7,29.35,North,0,0.0,0.0,82,0.00,,,0.02,WUHU216HW,2013-10-07 18:02:00,
2013-10-07 11:04:00,55.3,49.8,29.34,North,0,0.0,0.0,82,0.00,,,0.02,WUHU216HW,2013-10-07 18:04:00,
2013-10-07 11:05:00,55.3,49.8,29.34,North,0,0.0,0.0,82,0.00,,,0.02,WUHU216HW,2013-10-07 18:05:00,
2013-10-07 11:06:00,55.3,49.5,29.34,North,0,0.0,0.0,81,0.00,,,0.02,WUHU216HW,2013-10-07 18:06:00,
2013-10-07 11:07:00,55.3,49.8,29.34,North,0,0.0,0.0,82,0.00,,,0.02,WUHU216HW,2013-10-07 18:07:00,
2013-10-07 11:09:00,55.4,50.0,29.34,North,0,0.0,0.0,82,0.00,,,0.02,WUHU216HW,2013-10-07 18:09:00,
2013-10-07 11:10:00,55.4,50.0,29.34,North,0,0.0,0.0,82,0.00,,,0.02,WUHU216HW,2013-10-07 18:10:00,
2013-10-07 11:11:00,55.6,50.1,29.34,North,0,0.0,0.0,82,0.00,,,0.02,WUHU216HW,2013-10-07 18:11:00,
2013-10-07 11:12:00,55.6,50.1,29.34,North,0,0.0,0.0,82,0.00,,,0.02,WUHU216HW,2013-10-07 18:12:00,
2013-10-07 11:15:00,55.8,50.3,29.34,North,0,0.0,0.0,82,0.00,,,0.02,WUHU216HW,2013-10-07 18:15:00,
2013-10-07 11:17:00,55.8,50.1,29.34,North,0,0.0,0.0,81,0.00,,,0.02,WUHU216HW,2013-10-07 18:17:00,
2013-10-07 11:20:00,56.0,50.2,29.35,North,0,0.0,0.0,81,0.00,,,0.02,WUHU216HW,2013-10-07 18:20:00,
2013-10-07 11:21:00,56.2,50.4,29.35,North,0,0.0,0.0,81,0.00,,,0.02,WUHU216HW,2013-10-07 18:21:00,
2013-10-07 11:22:00,56.2,50.4,29.35,North,0,0.0,0.0,81,0.00,,,0.02,WUHU216HW,2013-10-07 18:22:00,
2013-10-07 11:25:00,56.5,50.8,29.35,North,0,0.0,0.0,81,0.00,,,0.02,WUHU216HW,2013-10-07 18:25:00,
2013-10-07 11:26:00,56.5,50.8,29.35,North,0,0.0,0.0,81,0.00,,,0.02,WUHU216HW,2013-10-07 18:26:00,
2013-10-07 11:28:00,56.7,51.0,29.35,North,0,0.0,0.0,81,0.00,,,0.02,WUHU216HW,2013-10-07 18:28:00,
2013-10-07 11:30:00,56.9,50.8,29.35,North,0,0.0,0.0,80,0.00,,,0.02,WUHU216HW,2013-10-07 18:30:00,
2013-10-07 11:31:00,56.9,50.4,29.35,North,0,0.0,0.0,79,0.00,,,0.02,WUHU216HW,2013-10-07 18:31:00,
2013-10-07 11:32:00,56.9,50.8,29.35,North,0,0.0,0.0,80,0.00,,,0.02,WUHU216HW,2013-10-07 18:32:00,
2013-10-07 11:33:00,56.9,50.8,29.35,North,0,0.0,0.0,80,0.00,,,0.02,WUHU216HW,2013-10-07 18:33:00,
2013-10-07 11:35:00,56.9,50.4,29.35,North,0,0.0,0.0,79,0.00,,,0.02,WUHU216HW,2013-10-07 18:35:00,
2013-10-07 11:36:00,56.9,50.4,29.35,North,0,0.0,0.0,79,0.00,,,0.02,WUHU216HW,2013-10-07 18:36:00,
2013-10-07 11:37:00,56.9,50.4,29.35,North,0,0.0,0.0,79,0.00,,,0.02,WUHU216HW,2013-10-07 18:37:00,
2013-10-07 11:38:00,56.9,50.4,29.35,North,0,0.0,0.0,79,0.00,,,0.02,WUHU216HW,2013-10-07 18:38:00,
2013-10-07 11:40:00,56.9,50.4,29.36,North,0,0.0,0.0,79,0.00,,,0.02,WUHU216HW,2013-10-07 18:40:00,
2013-10-07 11:41:00,56.9,50.4,29.36,North,0,0.0,0.0,79,0.00,,,0.02,WUHU216HW,2013-10-07 18:41:00,
2013-10-07 11:42:00,56.9,49.7,29.36,North,0,0.0,0.0,77,0.00,,,0.02,WUHU216HW,2013-10-07 18:42:00,
2013-10-07 11:43:00,56.9,49.7,29.36,North,0,0.0,0.0,77,0.00,,,0.02,WUHU216HW,2013-10-07 18:43:00,
2013-10-07 11:44:00,57.1,50.2,29.36,North,0,0.0,0.0,78,0.00,,,0.02,WUHU216HW,2013-10-07 18:44:00,
2013-10-07 11:45:00,57.1,50.2,29.36,North,0,0.0,0.0,78,0.00,,,0.02,WUHU216HW,2013-10-07 18:45:00,
2013-10-07 11:47:00,57.2,50.4,29.36,North,0,0.0,0.0,78,0.00,,,0.02,WUHU216HW,2013-10-07 18:47:00,
2013-10-07 11:48:00,57.2,50.8,29.36,North,0,0.0,0.0,79,0.00,,,0.02,WUHU216HW,2013-10-07 18:48:00,
2013-10-07 11:49:00,57.2,50.8,29.36,North,0,0.0,0.0,79,0.00,,,0.02,WUHU216HW,2013-10-07 18:49:00,
2013-10-07 11:50:00,57.4,50.9,29.36,North,0,0.0,0.0,79,0.00,,,0.02,WUHU216HW,2013-10-07 18:50:00,
2013-10-07 11:52:00,57.6,51.1,29.36,North,0,0.0,0.0,79,0.00,,,0.02,WUHU216HW,2013-10-07 18:52:00,
2013-10-07 11:53:00,57.6,51.1,29.36,North,0,0.0,0.0,79,0.00,,,0.02,WUHU216HW,2013-10-07 18:53:00,
2013-10-07 11:54:00,57.8,50.9,29.36,North,0,0.0,0.0,78,0.00,,,0.02,WUHU216HW,2013-10-07 18:54:00,
2013-10-07 11:55:00,57.8,50.2,29.36,North,0,0.0,0.0,76,0.00,,,0.02,WUHU216HW,2013-10-07 18:55:00,
2013-10-07 11:57:00,58.1,50.9,29.36,North,0,0.0,0.0,77,0.00,,,0.02,WUHU216HW,2013-10-07 18:57:00,
2013-10-07 11:58:00,58.1,50.9,29.36,North,0,0.0,0.0,77,0.00,,,0.02,WUHU216HW,2013-10-07 18:58:00,
2013-10-07 11:59:00,58.3,50.8,29.36,North,0,0.0,0.0,76,0.00,,,0.02,WUHU216HW,2013-10-07 18:59:00,
2013-10-07 12:01:00,58.3,51.1,29.36,North,0,0.0,0.0,77,0.00,,,0.02,WUHU216HW,2013-10-07 19:01:00,
2013-10-07 12:02:00,58.7,51.5,29.36,North,0,0.0,0.0,77,0.00,,,0.02,WUHU216HW,2013-10-07 19:02:00,
2013-10-07 12:03:00,58.7,51.1,29.36,North,0,0.0,0.0,76,0.00,,,0.02,WUHU216HW,2013-10-07 19:03:00,
2013-10-07 12:04:00,58.7,51.1,29.36,North,0,0.0,0.0,76,0.00,,,0.02,WUHU216HW,2013-10-07 19:04:00,
2013-10-07 12:06:00,58.9,50.9,29.36,North,0,0.0,0.0,75,0.00,,,0.02,WUHU216HW,2013-10-07 19:06:00,
2013-10-07 12:07:00,59.0,51.1,29.36,North,0,0.0,0.0,75,0.00,,,0.02,WUHU216HW,2013-10-07 19:07:00,
2013-10-07 12:08:00,59.0,51.1,29.36,North,0,0.0,0.0,75,0.00,,,0.02,WUHU216HW,2013-10-07 19:08:00,
2013-10-07 12:09:00,59.0,51.1,29.36,North,0,0.0,0.0,75,0.00,,,0.02,WUHU216HW,2013-10-07 19:09:00,
2013-10-07 12:11:00,59.0,51.1,29.36,North,0,0.0,0.0,75,0.00,,,0.02,WUHU216HW,2013-10-07 19:11:00,
2013-10-07 12:12:00,59.4,51.1,29.36,North,0,0.0,0.0,74,0.00,,,0.02,WUHU216HW,2013-10-07 19:12:00,
2013-10-07 12:13:00,59.4,51.1,29.36,North,0,0.0,0.0,74,0.00,,,0.02,WUHU216HW,2013-10-07 19:13:00,
2013-10-07 12:14:00,59.4,50.8,29.36,North,0,0.0,0.0,73,0.00,,,0.02,WUHU216HW,2013-10-07 19:14:00,
2013-10-07 12:15:00,59.4,50.8,29.36,North,0,0.0,0.0,73,0.00,,,0.02,WUHU216HW,2013-10-07 19:15:00,
2013-10-07 12:16:00,59.4,50.0,29.36,North,0,0.0,0.0,71,0.00,,,0.02,WUHU216HW,2013-10-07 19:16:00,
2013-10-07 12:18:00,59.4,49.7,29.37,North,0,0.0,0.0,70,0.00,,,0.02,WUHU216HW,2013-10-07 19:18:00,
2013-10-07 12:19:00,59.4,50.0,29.36,North,0,0.0,0.0,71,0.00,,,0.02,WUHU216HW,2013-10-07 19:19:00,
2013-10-07 12:20:00,59.4,50.0,29.36,North,0,0.0,0.0,71,0.00,,,0.02,WUHU216HW,2013-10-07 19:20:00,
2013-10-07 12:21:00,59.4,50.4,29.36,North,0,0.0,0.0,72,0.00,,,0.02,WUHU216HW,2013-10-07 19:21:00,
2013-10-07 12:23:00,59.4,50.4,29.36,North,0,0.0,0.0,72,0.00,,,0.02,WUHU216HW,2013-10-07 19:23:00,
2013-10-07 12:24:00,59.6,50.6,29.36,North,0,0.0,0.0,72,0.00,,,0.02,WUHU216HW,2013-10-07 19:24:00,
2013-10-07 12:25:00,59.9,51.3,29.36,North,0,0.0,0.0,73,0.00,,,0.02,WUHU216HW,2013-10-07 19:25:00,
2013-10-07 12:26:00,59.9,51.3,29.36,North,0,0.0,0.0,73,0.00,,,0.02,WUHU216HW,2013-10-07 19:26:00,
2013-10-07 12:28:00,60.5,51.1,29.36,North,0,0.0,0.0,71,0.00,,,0.02,WUHU216HW,2013-10-07 19:28:00,
2013-10-07 12:29:00,60.5,51.1,29.36,North,0,0.0,0.0,71,0.00,,,0.02,WUHU216HW,2013-10-07 19:29:00,
2013-10-07 12:31:00,60.8,51.5,29.36,North,0,0.0,0.0,71,0.00,,,0.02,WUHU216HW,2013-10-07 19:31:00,
2013-10-07 12:33:00,60.7,50.9,29.36,North,0,0.0,0.0,70,0.00,,,0.02,WUHU216HW,2013-10-07 19:33:00,
2013-10-07 12:35:00,60.7,50.9,29.36,North,0,0.0,0.0,70,0.00,,,0.02,WUHU216HW,2013-10-07 19:35:00,
2013-10-07 12:36:00,60.5,50.8,29.36,North,0,0.0,0.0,70,0.00,,,0.02,WUHU216HW,2013-10-07 19:36:00,
2013-10-07 12:37:00,60.5,50.8,29.36,North,0,0.0,0.0,70,0.00,,,0.02,WUHU216HW,2013-10-07 19:37:00,
2013-10-07 12:39:00,60.1,50.4,29.36,North,0,0.0,0.0,70,0.00,,,0.02,WUHU216HW,2013-10-07 19:39:00,
2013-10-07 12:40:00,60.1,50.8,29.36,North,0,0.0,0.0,71,0.00,,,0.02,WUHU216HW,2013-10-07 19:40:00,
2013-10-07 12:42:00,59.9,50.6,29.36,North,0,0.0,0.0,71,0.00,,,0.02,WUHU216HW,2013-10-07 19:42:00,
2013-10-07 12:44:00,59.8,49.6,29.36,North,0,0.0,0.0,69,0.00,,,0.02,WUHU216HW,2013-10-07 19:44:00,
2013-10-07 12:45:00,59.8,50.0,29.36,North,0,0.0,0.0,70,0.00,,,0.02,WUHU216HW,2013-10-07 19:45:00,
2013-10-07 12:47:00,59.6,50.2,29.36,North,0,0.0,0.0,71,0.00,,,0.02,WUHU216HW,2013-10-07 19:47:00,
2013-10-07 12:49:00,59.8,50.4,29.36,North,0,0.0,0.0,71,0.00,,,0.02,WUHU216HW,2013-10-07 19:49:00,
2013-10-07 12:50:00,59.8,50.4,29.36,North,0,0.0,0.0,71,0.00,,,0.02,WUHU216HW,2013-10-07 19:50:00,
2013-10-07 12:52:00,59.8,50.8,29.36,North,0,0.0,0.0,72,0.00,,,0.02,WUHU216HW,2013-10-07 19:52:00,
2013-10-07 12:53:00,60.1,51.1,29.36,North,0,0.0,0.0,72,0.00,,,0.02,WUHU216HW,2013-10-07 19:53:00,
2013-10-07 12:54:00,60.1,51.1,29.36,North,0,0.0,0.0,72,0.00,,,0.02,WUHU216HW,2013-10-07 19:54:00,
2013-10-07 12:55:00,60.1,51.5,29.36,North,0,0.0,0.0,73,0.00,,,0.02,WUHU216HW,2013-10-07 19:55:00,
2013-10-07 12:57:00,60.5,51.5,29.36,North,0,0.0,0.0,72,0.00,,,0.02,WUHU216HW,2013-10-07 19:57:00,
2013-10-07 12:58:00,60.5,50.8,29.36,North,0,0.0,0.0,70,0.00,,,0.02,WUHU216HW,2013-10-07 19:58:00,
2013-10-07 12:59:00,60.5,50.8,29.36,North,0,0.0,0.0,70,0.00,,,0.02,WUHU216HW,2013-10-07 19:59:00,
2013-10-07 13:00:00,60.5,50.8,29.36,North,0,0.0,0.0,70,0.00,,,0.02,WUHU216HW,2013-10-07 20:00:00,
2013-10-07 13:02:00,60.7,50.9,29.36,North,0,0.0,0.0,70,0.00,,,0.02,WUHU216HW,2013-10-07 20:02:00,
2013-10-07 13:03:00,60.8,50.7,29.36,North,0,0.0,0.0,69,0.00,,,0.02,WUHU216HW,2013-10-07 20:03:00,
2013-10-07 13:04:00,60.8,50.7,29.36,North,0,0.0,0.0,69,0.00,,,0.02,WUHU216HW,2013-10-07 20:04:00,
2013-10-07 13:05:00,61.0,50.5,29.36,North,0,0.0,0.0,68,0.00,,,0.02,WUHU216HW,2013-10-07 20:05:00,
2013-10-07 13:06:00,61.0,50.5,29.36,North,0,0.0,0.0,68,0.00,,,0.02,WUHU216HW,2013-10-07 20:06:00,
2013-10-07 13:08:00,61.0,49.2,29.36,North,0,0.0,0.0,65,0.00,,,0.02,WUHU216HW,2013-10-07 20:08:00,
2013-10-07 13:09:00,60.8,49.5,29.36,North,0,0.0,0.0,66,0.00,,,0.02,WUHU216HW,2013-10-07 20:09:00,
2013-10-07 13:10:00,60.8,49.5,29.36,North,0,0.0,0.0,66,0.00,,,0.02,WUHU216HW,2013-10-07 20:10:00,
2013-10-07 13:11:00,60.8,48.6,29.36,North,0,0.0,0.0,64,0.00,,,0.02,WUHU216HW,2013-10-07 20:11:00,
2013-10-07 13:13:00,60.7,49.3,29.36,North,0,0.0,0.0,66,0.00,,,0.02,WUHU216HW,2013-10-07 20:13:00,
2013-10-07 13:14:00,60.7,49.3,29.36,North,0,0.0,0.0,66,0.00,,,0.02,WUHU216HW,2013-10-07 20:14:00,
2013-10-07 13:16:00,60.5,49.2,29.36,North,0,0.0,0.0,66,0.00,,,0.02,WUHU216HW,2013-10-07 20:16:00,
2013-10-07 13:18:00,60.5,49.5,29.36,North,0,0.0,0.0,67,0.00,,,0.02,WUHU216HW,2013-10-07 20:18:00,
2013-10-07 13:19:00,60.5,49.5,29.36,North,0,0.0,0.0,67,0.00,,,0.02,WUHU216HW,2013-10-07 20:19:00,
2013-10-07 13:21:00,60.5,49.2,29.36,North,0,0.0,0.0,66,0.00,,,0.02,WUHU216HW,2013-10-07 20:21:00,
2013-10-07 13:23:00,60.1,49.6,29.36,North,0,0.0,0.0,68,0.00,,,0.02,WUHU216HW,2013-10-07 20:23:00,
2013-10-07 13:24:00,60.1,49.6,29.36,North,0,0.0,0.0,68,0.00,,,0.02,WUHU216HW,2013-10-07 20:24:00,
2013-10-07 13:26:00,60.1,49.1,29.36,North,0,0.0,0.0,67,0.00,,,0.02,WUHU216HW,2013-10-07 20:26:00,
2013-10-07 13:29:00,60.1,49.1,29.36,North,0,0.0,0.0,67,0.00,,,0.02,WUHU216HW,2013-10-07 20:29:00,
2013-10-07 13:30:00,59.9,49.0,29.36,North,0,0.0,0.0,67,0.00,,,0.02,WUHU216HW,2013-10-07 20:30:00,
2013-10-07 13:31:00,59.9,49.4,29.36,North,0,0.0,0.0,68,0.00,,,0.02,WUHU216HW,2013-10-07 20:31:00,
2013-10-07 13:32:00,59.9,49.4,29.36,North,0,0.0,0.0,68,0.00,,,0.02,WUHU216HW,2013-10-07 20:32:00,
2013-10-07 13:34:00,59.9,50.2,29.36,North,0,0.0,0.0,70,0.00,,,0.02,WUHU216HW,2013-10-07 20:34:00,
2013-10-07 13:35:00,59.9,50.2,29.36,North,0,0.0,0.0,70,0.00,,,0.02,WUHU216HW,2013-10-07 20:35:00,
2013-10-07 13:36:00,59.8,48.8,29.36,North,0,0.0,0.0,67,0.00,,,0.02,WUHU216HW,2013-10-07 20:36:00,
2013-10-07 13:37:00,59.8,48.4,29.36,North,0,0.0,0.0,66,0.00,,,0.02,WUHU216HW,2013-10-07 20:37:00,
2013-10-07 13:39:00,59.6,48.6,29.36,North,0,0.0,0.0,67,0.00,,,0.02,WUHU216HW,2013-10-07 20:39:00,
2013-10-07 13:40:00,59.6,49.1,29.36,North,0,0.0,0.0,68,0.00,,,0.02,WUHU216HW,2013-10-07 20:40:00,
2013-10-07 13:41:00,59.4,49.2,29.36,North,0,0.0,0.0,69,0.00,,,0.02,WUHU216HW,2013-10-07 20:41:00,
2013-10-07 13:42:00,59.4,48.9,29.36,North,0,0.0,0.0,68,0.00,,,0.02,WUHU216HW,2013-10-07 20:42:00,
2013-10-07 13:44:00,59.0,48.9,29.36,North,0,0.0,0.0,69,0.00,,,0.02,WUHU216HW,2013-10-07 20:44:00,
2013-10-07 13:45:00,59.0,48.9,29.36,North,0,0.0,0.0,69,0.00,,,0.02,WUHU216HW,2013-10-07 20:45:00,
2013-10-07 13:46:00,58.9,49.1,29.36,North,0,0.0,0.0,70,0.00,,,0.02,WUHU216HW,2013-10-07 20:46:00,
2013-10-07 13:48:00,58.9,49.5,29.36,North,0,0.0,0.0,71,0.00,,,0.02,WUHU216HW,2013-10-07 20:48:00,
2013-10-07 13:50:00,58.7,49.7,29.37,North,0,0.0,0.0,72,0.00,,,0.02,WUHU216HW,2013-10-07 20:50:00,
2013-10-07 13:51:00,58.5,49.5,29.36,North,0,0.0,0.0,72,0.00,,,0.02,WUHU216HW,2013-10-07 20:51:00,
2013-10-07 13:53:00,58.3,49.3,29.36,North,0,0.0,0.0,72,0.00,,,0.02,WUHU216HW,2013-10-07 20:53:00,
2013-10-07 13:55:00,58.1,49.5,29.37,North,0,0.0,0.0,73,0.00,,,0.02,WUHU216HW,2013-10-07 20:55:00,
2013-10-07 13:56:00,58.1,49.5,29.37,North,0,0.0,0.0,73,0.00,,,0.02,WUHU216HW,2013-10-07 20:56:00,
2013-10-07 13:59:00,58.0,49.3,29.37,North,0,0.0,0.0,73,0.00,,,0.02,WUHU216HW,2013-10-07 20:59:00,
2013-10-07 14:00:00,58.0,49.3,29.37,North,0,0.0,0.0,73,0.00,,,0.02,WUHU216HW,2013-10-07 21:00:00,
2013-10-07 14:01:00,58.0,49.3,29.37,North,0,0.0,0.0,73,0.00,,,0.02,WUHU216HW,2013-10-07 21:01:00,
2013-10-07 14:05:00,58.0,49.7,29.37,North,0,0.0,0.0,74,0.00,,,0.02,WUHU216HW,2013-10-07 21:05:00,
2013-10-07 14:06:00,58.0,49.7,29.37,North,0,0.0,0.0,74,0.00,,,0.02,WUHU216HW,2013-10-07 21:06:00,
2013-10-07 14:07:00,58.0,49.7,29.37,North,0,0.0,0.0,74,0.00,,,0.02,WUHU216HW,2013-10-07 21:07:00,
2013-10-07 14:10:00,57.8,49.5,29.37,North,0,0.0,0.0,74,0.00,,,0.02,WUHU216HW,2013-10-07 21:10:00,
2013-10-07 14:11:00,57.8,49.5,29.37,North,0,0.0,0.0,74,0.00,,,0.02,WUHU216HW,2013-10-07 21:11:00,
2013-10-07 14:12:00,57.8,49.5,29.37,North,0,0.0,0.0,74,0.00,,,0.02,WUHU216HW,2013-10-07 21:12:00,
2013-10-07 14:15:00,57.8,49.5,29.37,North,0,0.0,0.0,74,0.00,,,0.02,WUHU216HW,2013-10-07 21:15:00,
2013-10-07 14:16:00,57.8,49.5,29.37,North,0,0.0,0.0,74,0.00,,,0.02,WUHU216HW,2013-10-07 21:16:00,
2013-10-07 14:17:00,57.8,49.5,29.37,North,0,0.0,0.0,74,0.00,,,0.02,WUHU216HW,2013-10-07 21:17:00,
2013-10-07 14:20:00,58.0,49.3,29.37,North,0,0.0,0.0,73,0.00,,,0.02,WUHU216HW,2013-10-07 21:20:00,
2013-10-07 14:21:00,58.0,49.3,29.37,North,0,0.0,0.0,73,0.00,,,0.02,WUHU216HW,2013-10-07 21:21:00,
2013-10-07 14:22:00,58.0,49.3,29.37,North,0,0.0,0.0,73,0.00,,,0.02,WUHU216HW,2013-10-07 21:22:00,
2013-10-07 14:25:00,58.1,49.5,29.37,North,0,0.0,0.0,73,0.00,,,0.02,WUHU216HW,2013-10-07 21:25:00,
2013-10-07 14:26:00,58.1,49.5,29.37,North,0,0.0,0.0,73,0.00,,,0.02,WUHU216HW,2013-10-07 21:26:00,
2013-10-07 14:27:00,58.1,49.5,29.37,North,0,0.0,0.0,73,0.00,,,0.02,WUHU216HW,2013-10-07 21:27:00,
2013-10-07 14:30:00,58.5,49.9,29.37,North,0,0.0,0.0,73,0.00,,,0.02,WUHU216HW,2013-10-07 21:30:00,
2013-10-07 14:31:00,58.5,49.9,29.37,North,0,0.0,0.0,73,0.00,,,0.02,WUHU216HW,2013-10-07 21:31:00,
2013-10-07 14:32:00,58.7,50.0,29.37,North,0,0.0,0.0,73,0.00,,,0.02,WUHU216HW,2013-10-07 21:32:00,
2013-10-07 14:33:00,58.7,50.0,29.37,North,0,0.0,0.0,73,0.00,,,0.02,WUHU216HW,2013-10-07 21:33:00,
2013-10-07 14:36:00,59.0,50.0,29.37,North,0,0.0,0.0,72,0.00,,,0.02,WUHU216HW,2013-10-07 21:36:00,
2013-10-07 14:37:00,59.4,50.4,29.37,North,0,0.0,0.0,72,0.00,,,0.02,WUHU216HW,2013-10-07 21:37:00,
2013-10-07 14:38:00,59.4,50.4,29.37,North,0,0.0,0.0,72,0.00,,,0.02,WUHU216HW,2013-10-07 21:38:00,
2013-10-07 14:41:00,59.6,49.9,29.37,North,0,0.0,0.0,70,0.00,,,0.02,WUHU216HW,2013-10-07 21:41:00,
2013-10-07 14:43:00,59.8,49.6,29.37,North,0,0.0,0.0,69,0.00,,,0.02,WUHU216HW,2013-10-07 21:43:00,
2013-10-07 14:44:00,59.8,49.6,29.37,North,0,0.0,0.0,69,0.00,,,0.02,WUHU216HW,2013-10-07 21:44:00,
2013-10-07 14:46:00,60.1,50.0,29.37,North,0,0.0,0.0,69,0.00,,,0.02,WUHU216HW,2013-10-07 21:46:00,
2013-10-07 14:47:00,60.1,50.0,29.37,North,0,0.0,0.0,69,0.00,,,0.02,WUHU216HW,2013-10-07 21:47:00,
2013-10-07 14:48:00,60.1,48.8,29.37,North,0,0.0,0.0,66,0.00,,,0.02,WUHU216HW,2013-10-07 21:48:00,
2013-10-07 14:49:00,60.1,49.6,29.37,North,0,0.0,0.0,68,0.00,,,0.02,WUHU216HW,2013-10-07 21:49:00,
2013-10-07 14:52:00,60.1,50.0,29.37,North,0,0.0,0.0,69,0.00,,,0.02,WUHU216HW,2013-10-07 21:52:00,
2013-10-07 14:53:00,60.1,49.6,29.37,North,0,0.0,0.0,68,0.00,,,0.02,WUHU216HW,2013-10-07 21:53:00,
2013-10-07 14:54:00,59.9,48.6,29.37,North,0,0.0,0.0,66,0.00,,,0.02,WUHU216HW,2013-10-07 21:54:00,
2013-10-07 14:57:00,59.9,49.0,29.37,North,0,0.0,0.0,67,0.00,,,0.02,WUHU216HW,2013-10-07 21:57:00,
2013-10-07 14:58:00,59.9,48.6,29.37,North,0,0.0,0.0,66,0.00,,,0.02,WUHU216HW,2013-10-07 21:58:00,
2013-10-07 14:59:00,59.9,48.6,29.37,North,0,0.0,0.0,66,0.00,,,0.02,WUHU216HW,2013-10-07 21:59:00,
2013-10-07 15:00:00,59.9,49.0,29.37,North,0,0.0,0.0,67,0.00,,,0.02,WUHU216HW,2013-10-07 22:00:00,
2013-10-07 15:02:00,59.9,49.0,29.37,North,0,0.0,0.0,67,0.00,,,0.02,WUHU216HW,2013-10-07 22:02:00,
2013-10-07 15:03:00,60.1,48.8,29.37,North,0,0.0,0.0,66,0.00,,,0.02,WUHU216HW,2013-10-07 22:03:00,
2013-10-07 15:04:00,60.1,48.8,29.37,North,0,0.0,0.0,66,0.00,,,0.02,WUHU216HW,2013-10-07 22:04:00,
2013-10-07 15:05:00,60.1,49.6,29.37,North,0,0.0,0.0,68,0.00,,,0.02,WUHU216HW,2013-10-07 22:05:00,
2013-10-07 15:07:00,60.1,49.1,29.37,North,0,0.0,0.0,67,0.00,,,0.02,WUHU216HW,2013-10-07 22:07:00,
2013-10-07 15:08:00,60.1,49.6,29.38,North,0,0.0,0.0,68,0.00,,,0.02,WUHU216HW,2013-10-07 22:08:00,
2013-10-07 15:09:00,60.1,49.6,29.38,North,0,0.0,0.0,68,0.00,,,0.02,WUHU216HW,2013-10-07 22:09:00,
2013-10-07 15:10:00,59.8,49.6,29.38,North,0,0.0,0.0,69,0.00,,,0.02,WUHU216HW,2013-10-07 22:10:00,
2013-10-07 15:13:00,59.4,49.2,29.37,North,0,0.0,0.0,69,0.00,,,0.02,WUHU216HW,2013-10-07 22:13:00,
2013-10-07 15:14:00,59.4,49.2,29.37,North,0,0.0,0.0,69,0.00,,,0.02,WUHU216HW,2013-10-07 22:14:00,
2013-10-07 15:15:00,59.2,49.5,29.37,North,0,0.0,0.0,70,0.00,,,0.02,WUHU216HW,2013-10-07 22:15:00,
2013-10-07 15:19:00,59.2,49.5,29.37,North,0,0.0,0.0,70,0.00,,,0.02,WUHU216HW,2013-10-07 22:19:00,
2013-10-07 15:20:00,59.2,49.5,29.37,North,0,0.0,0.0,70,0.00,,,0.02,WUHU216HW,2013-10-07 22:20:00,
2013-10-07 15:21:00,59.2,49.5,29.37,North,0,0.0,0.0,70,0.00,,,0.02,WUHU216HW,2013-10-07 22:21:00,
2013-10-07 15:24:00,59.2,49.5,29.37,North,0,0.0,0.0,70,0.00,,,0.02,WUHU216HW,2013-10-07 22:24:00,
2013-10-07 15:26:00,59.0,49.3,29.38,North,0,0.0,0.0,70,0.00,,,0.02,WUHU216HW,2013-10-07 22:26:00,
2013-10-07 15:29:00,59.0,49.3,29.37,North,0,0.0,0.0,70,0.00,,,0.02,WUHU216HW,2013-10-07 22:29:00,
2013-10-07 15:30:00,58.9,48.7,29.38,North,0,0.0,0.0,69,0.00,,,0.02,WUHU216HW,2013-10-07 22:30:00,
2013-10-07 15:31:00,58.9,49.1,29.38,North,0,0.0,0.0,70,0.00,,,0.02,WUHU216HW,2013-10-07 22:31:00,
2013-10-07 15:34:00,58.9,49.1,29.38,North,0,0.0,0.0,70,0.00,,,0.02,WUHU216HW,2013-10-07 22:34:00,
2013-10-07 15:35:00,58.9,48.7,29.38,North,0,0.0,0.0,69,0.00,,,0.02,WUHU216HW,2013-10-07 22:35:00,
2013-10-07 15:36:00,58.9,49.1,29.38,North,0,0.0,0.0,70,0.00,,,0.02,WUHU216HW,2013-10-07 22:36:00,
2013-10-07 15:37:00,58.9,49.1,29.38,North,0,0.0,0.0,70,0.00,,,0.02,WUHU216HW,2013-10-07 22:37:00,
2013-10-07 15:39:00,58.7,48.5,29.38,North,0,0.0,0.0,69,0.00,,,0.02,WUHU216HW,2013-10-07 22:39:00,
2013-10-07 15:40:00,58.7,49.0,29.38,North,0,0.0,0.0,70,0.00,,,0.02,WUHU216HW,2013-10-07 22:40:00,
2013-10-07 15:42:00,58.7,49.0,29.38,North,0,0.0,0.0,70,0.00,,,0.02,WUHU216HW,2013-10-07 22:42:00,
2013-10-07 15:44:00,58.3,49.0,29.38,North,0,0.0,0.0,71,0.00,,,0.02,WUHU216HW,2013-10-07 22:44:00,
2013-10-07 15:45:00,58.3,49.0,29.38,North,0,0.0,0.0,71,0.00,,,0.02,WUHU216HW,2013-10-07 22:45:00,
2013-10-07 15:47:00,58.1,48.8,29.38,North,0,0.0,0.0,71,0.00,,,0.02,WUHU216HW,2013-10-07 22:47:00,
2013-10-07 15:48:00,58.1,48.8,29.38,North,0,0.0,0.0,71,0.00,,,0.02,WUHU216HW,2013-10-07 22:48:00,
2013-10-07 15:49:00,58.1,48.8,29.38,North,0,0.0,0.0,71,0.00,,,0.02,WUHU216HW,2013-10-07 22:49:00,
2013-10-07 15:50:00,58.0,49.0,29.38,North,0,0.0,0.0,72,0.00,,,0.02,WUHU216HW,2013-10-07 22:50:00,
2013-10-07 15:51:00,58.0,49.0,29.38,North,0,0.0,0.0,72,0.00,,,0.02,WUHU216HW,2013-10-07 22:51:00,
2013-10-07 15:52:00,58.0,49.0,29.38,North,0,0.0,0.0,72,0.00,,,0.02,WUHU216HW,2013-10-07 22:52:00,
2013-10-07 15:53:00,58.0,49.0,29.38,North,0,0.0,0.0,72,0.00,,,0.02,WUHU216HW,2013-10-07 22:53:00,
2013-10-07 15:54:00,58.0,49.0,29.38,North,0,0.0,0.0,72,0.00,,,0.02,WUHU216HW,2013-10-07 22:54:00,
2013-10-07 15:55:00,58.0,49.3,29.38,North,0,0.0,0.0,73,0.00,,,0.02,WUHU216HW,2013-10-07 22:55:00,
2013-10-07 15:56:00,58.0,49.3,29.38,North,0,0.0,0.0,73,0.00,,,0.02,WUHU216HW,2013-10-07 22:56:00,
2013-10-07 15:57:00,58.0,49.3,29.38,North,0,0.0,0.0,73,0.00,,,0.02,WUHU216HW,2013-10-07 22:57:00,
2013-10-07 15:58:00,58.0,49.3,29.38,North,0,0.0,0.0,73,0.00,,,0.02,WUHU216HW,2013-10-07 22:58:00,
2013-10-07 16:00:00,58.0,49.3,29.38,North,0,0.0,0.0,73,0.00,,,0.02,WUHU216HW,2013-10-07 23:00:00,
2013-10-07 16:01:00,58.0,49.3,29.38,North,0,0.0,0.0,73,0.00,,,0.02,WUHU216HW,2013-10-07 23:01:00,
2013-10-07 16:02:00,58.0,49.3,29.38,North,0,0.0,0.0,73,0.00,,,0.02,WUHU216HW,2013-10-07 23:02:00,
2013-10-07 16:03:00,58.0,49.3,29.38,North,0,0.0,0.0,73,0.00,,,0.02,WUHU216HW,2013-10-07 23:03:00,
2013-10-07 16:05:00,58.0,49.3,29.39,North,0,0.0,0.0,73,0.00,,,0.02,WUHU216HW,2013-10-07 23:05:00,
2013-10-07 16:06:00,58.0,49.3,29.38,North,0,0.0,0.0,73,0.00,,,0.02,WUHU216HW,2013-10-07 23:06:00,
2013-10-07 16:07:00,57.8,49.1,29.39,North,0,0.0,0.0,73,0.00,,,0.02,WUHU216HW,2013-10-07 23:07:00,
2013-10-07 16:08:00,57.8,49.1,29.39,North,0,0.0,0.0,73,0.00,,,0.02,WUHU216HW,2013-10-07 23:08:00,
2013-10-07 16:10:00,57.6,49.0,29.39,North,0,0.0,0.0,73,0.00,,,0.02,WUHU216HW,2013-10-07 23:10:00,
2013-10-07 16:11:00,57.6,49.0,29.39,North,0,0.0,0.0,73,0.00,,,0.02,WUHU216HW,2013-10-07 23:11:00,
2013-10-07 16:14:00,57.6,49.0,29.39,North,0,0.0,0.0,73,0.00,,,0.02,WUHU216HW,2013-10-07 23:14:00,
2013-10-07 16:15:00,57.6,49.0,29.39,North,0,0.0,0.0,73,0.00,,,0.02,WUHU216HW,2013-10-07 23:15:00,
2013-10-07 16:16:00,57.6,49.3,29.39,North,0,0.0,0.0,74,0.00,,,0.02,WUHU216HW,2013-10-07 23:16:00,
2013-10-07 16:19:00,57.2,49.3,29.39,North,0,0.0,0.0,75,0.00,,,0.02,WUHU216HW,2013-10-07 23:19:00,
2013-10-07 16:20:00,57.2,49.3,29.39,North,0,0.0,0.0,75,0.00,,,0.02,WUHU216HW,2013-10-07 23:20:00,
2013-10-07 16:21:00,57.2,49.3,29.39,North,0,0.0,0.0,75,0.00,,,0.02,WUHU216HW,2013-10-07 23:21:00,
2013-10-07 16:22:00,57.2,49.3,29.39,North,0,0.0,0.0,75,0.00,,,0.02,WUHU216HW,2013-10-07 23:22:00,
2013-10-07 16:24:00,57.2,49.7,29.39,North,0,0.0,0.0,76,0.00,,,0.02,WUHU216HW,2013-10-07 23:24:00,
2013-10-07 16:25:00,57.2,49.7,29.39,North,0,0.0,0.0,76,0.00,,,0.02,WUHU216HW,2013-10-07 23:25:00,
2013-10-07 16:26:00,57.2,49.7,29.39,North,0,0.0,0.0,76,0.00,,,0.02,WUHU216HW,2013-10-07 23:26:00,
2013-10-07 16:27:00,57.1,49.5,29.39,North,0,0.0,0.0,76,0.00,,,0.02,WUHU216HW,2013-10-07 23:27:00,
2013-10-07 16:29:00,57.1,49.5,29.39,North,0,0.0,0.0,76,0.00,,,0.02,WUHU216HW,2013-10-07 23:29:00,
2013-10-07 16:30:00,57.1,49.5,29.39,North,0,0.0,0.0,76,0.00,,,0.02,WUHU216HW,2013-10-07 23:30:00,
2013-10-07 16:31:00,57.1,49.5,29.39,North,0,0.0,0.0,76,0.00,,,0.02,WUHU216HW,2013-10-07 23:31:00,
2013-10-07 16:32:00,57.1,49.5,29.39,North,0,0.0,0.0,76,0.00,,,0.02,WUHU216HW,2013-10-07 23:32:00,
2013-10-07 16:35:00,57.1,49.5,29.39,North,0,0.0,0.0,76,0.00,,,0.02,WUHU216HW,2013-10-07 23:35:00,
2013-10-07 16:36:00,57.1,49.5,29.39,North,0,0.0,0.0,76,0.00,,,0.02,WUHU216HW,2013-10-07 23:36:00,
2013-10-07 16:37:00,57.1,49.5,29.39,North,0,0.0,0.0,76,0.00,,,0.02,WUHU216HW,2013-10-07 23:37:00,
2013-10-07 16:40:00,57.1,49.5,29.39,North,0,0.0,0.0,76,0.00,,,0.02,WUHU216HW,2013-10-07 23:40:00,
2013-10-07 16:41:00,57.1,49.9,29.39,North,0,0.0,0.0,77,0.00,,,0.02,WUHU216HW,2013-10-07 23:41:00,
2013-10-07 16:42:00,57.1,49.9,29.39,North,0,0.0,0.0,77,0.00,,,0.02,WUHU216HW,2013-10-07 23:42:00,
2013-10-07 16:43:00,57.1,49.9,29.39,North,0,0.0,0.0,77,0.00,,,0.02,WUHU216HW,2013-10-07 23:43:00,
2013-10-07 16:46:00,57.1,49.9,29.39,North,0,0.0,0.0,77,0.00,,,0.02,WUHU216HW,2013-10-07 23:46:00,
2013-10-07 16:47:00,57.1,49.9,29.40,North,0,0.0,0.0,77,0.00,,,0.02,WUHU216HW,2013-10-07 23:47:00,
2013-10-07 16:48:00,57.1,50.2,29.40,North,0,0.0,0.0,78,0.00,,,0.02,WUHU216HW,2013-10-07 23:48:00,
2013-10-07 16:51:00,57.1,50.2,29.39,North,0,0.0,0.0,78,0.00,,,0.02,WUHU216HW,2013-10-07 23:51:00,
2013-10-07 16:52:00,57.2,50.4,29.39,North,0,0.0,0.0,78,0.00,,,0.02,WUHU216HW,2013-10-07 23:52:00,
2013-10-07 16:53:00,57.1,50.2,29.39,North,0,0.0,0.0,78,0.00,,,0.02,WUHU216HW,2013-10-07 23:53:00,
2013-10-07 16:56:00,57.1,50.2,29.39,North,0,0.0,0.0,78,0.00,,,0.02,WUHU216HW,2013-10-07 23:56:00,
2013-10-07 16:57:00,57.2,50.4,29.39,North,0,0.0,0.0,78,0.00,,,0.02,WUHU216HW,2013-10-07 23:57:00,
2013-10-07 16:58:00,57.1,50.2,29.39,North,0,0.0,0.0,78,0.00,,,0.02,WUHU216HW,2013-10-07 23:58:00,
2013-10-07 17:02:00,57.1,50.2,29.39,North,0,0.0,0.0,78,0.00,,,0.02,WUHU216HW,2013-10-08 00:02:00,
2013-10-07 17:03:00,56.9,50.0,29.39,North,0,0.0,0.0,78,0.00,,,0.02,WUHU216HW,2013-10-08 00:03:00,
2013-10-07 17:07:00,56.5,49.7,29.39,North,0,0.0,0.0,78,0.00,,,0.02,WUHU216HW,2013-10-08 00:07:00,
2013-10-07 17:08:00,56.3,49.9,29.39,North,0,0.0,0.0,79,0.00,,,0.02,WUHU216HW,2013-10-08 00:08:00,
2013-10-07 17:09:00,56.2,49.7,29.39,North,0,0.0,0.0,79,0.00,,,0.02,WUHU216HW,2013-10-08 00:09:00,
2013-10-07 17:12:00,55.8,49.3,29.39,North,0,0.0,0.0,79,0.00,,,0.02,WUHU216HW,2013-10-08 00:12:00,
2013-10-07 17:13:00,55.6,49.1,29.39,North,0,0.0,0.0,79,0.00,,,0.02,WUHU216HW,2013-10-08 00:13:00,
2013-10-07 17:14:00,55.4,49.0,29.39,North,0,0.0,0.0,79,0.00,,,0.02,WUHU216HW,2013-10-08 00:14:00,
2013-10-07 17:17:00,55.3,48.5,29.39,North,0,0.0,0.0,78,0.00,,,0.02,WUHU216HW,2013-10-08 00:17:00,
2013-10-07 17:18:00,55.3,48.5,29.39,North,0,0.0,0.0,78,0.00,,,0.02,WUHU216HW,2013-10-08 00:18:00,
2013-10-07 17:19:00,55.3,48.5,29.39,North,0,0.0,0.0,78,0.00,,,0.02,WUHU216HW,2013-10-08 00:19:00,
2013-10-07 17:22:00,55.1,48.3,29.39,North,0,0.0,0.0,78,0.00,,,0.02,WUHU216HW,2013-10-08 00:22:00,
2013-10-07 17:23:00,55.1,48.3,29.39,North,0,0.0,0.0,78,0.00,,,0.02,WUHU216HW,2013-10-08 00:23:00,
2013-10-07 17:24:00,55.3,48.8,29.39,North,0,0.0,0.0,79,0.00,,,0.02,WUHU216HW,2013-10-08 00:24:00,
2013-10-07 17:27:00,55.3,48.8,29.39,North,0,0.0,0.0,79,0.00,,,0.02,WUHU216HW,2013-10-08 00:27:00,
2013-10-07 17:28:00,55.4,49.0,29.39,North,0,0.0,0.0,79,0.00,,,0.02,WUHU216HW,2013-10-08 00:28:00,
2013-10-07 17:29:00,55.4,49.0,29.39,North,0,0.0,0.0,79,0.00,,,0.02,WUHU216HW,2013-10-08 00:29:00,
2013-10-07 17:32:00,55.6,49.5,29.39,North,0,0.0,0.0,80,0.00,,,0.02,WUHU216HW,2013-10-08 00:32:00,
2013-10-07 17:33:00,55.6,49.5,29.39,North,0,0.0,0.0,80,0.00,,,0.02,WUHU216HW,2013-10-08 00:33:00,
2013-10-07 17:34:00,55.6,49.5,29.39,North,0,0.0,0.0,80,0.00,,,0.02,WUHU216HW,2013-10-08 00:34:00,
2013-10-07 17:35:00,55.8,49.7,29.39,North,0,0.0,0.0,80,0.00,,,0.02,WUHU216HW,2013-10-08 00:35:00,
2013-10-07 17:37:00,55.8,49.7,29.39,North,0,0.0,0.0,80,0.00,,,0.02,WUHU216HW,2013-10-08 00:37:00,
2013-10-07 17:38:00,55.8,49.3,29.39,North,0,0.0,0.0,79,0.00,,,0.02,WUHU216HW,2013-10-08 00:38:00,
2013-10-07 17:40:00,55.8,49.3,29.39,North,0,0.0,0.0,79,0.00,,,0.02,WUHU216HW,2013-10-08 00:40:00,
2013-10-07 17:42:00,56.0,49.5,29.39,North,0,0.0,0.0,79,0.00,,,0.02,WUHU216HW,2013-10-08 00:42:00,
2013-10-07 17:44:00,55.8,49.3,29.39,North,0,0.0,0.0,79,0.00,,,0.02,WUHU216HW,2013-10-08 00:44:00,
2013-10-07 17:45:00,55.8,49.3,29.39,North,0,0.0,0.0,79,0.00,,,0.02,WUHU216HW,2013-10-08 00:45:00,
2013-10-07 17:46:00,55.8,49.3,29.39,North,0,0.0,0.0,79,0.00,,,0.02,WUHU216HW,2013-10-08 00:46:00,
2013-10-07 17:47:00,55.8,49.3,29.39,North,0,0.0,0.0,79,0.00,,,0.02,WUHU216HW,2013-10-08 00:47:00,
2013-10-07 17:49:00,55.8,49.3,29.39,North,0,0.0,0.0,79,0.00,,,0.02,WUHU216HW,2013-10-08 00:49:00,
2013-10-07 17:50:00,55.6,49.5,29.39,North,0,0.0,0.0,80,0.00,,,0.02,WUHU216HW,2013-10-08 00:50:00,
2013-10-07 17:51:00,55.6,49.5,29.39,North,0,0.0,0.0,80,0.00,,,0.02,WUHU216HW,2013-10-08 00:51:00,
2013-10-07 17:53:00,55.6,49.5,29.39,North,0,0.0,0.0,80,0.00,,,0.02,WUHU216HW,2013-10-08 00:53:00,
2013-10-07 17:54:00,55.6,49.5,29.39,North,0,0.0,0.0,80,0.00,,,0.02,WUHU216HW,2013-10-08 00:54:00,
2013-10-07 17:56:00,55.3,48.8,29.39,North,0,0.0,0.0,79,0.00,,,0.02,WUHU216HW,2013-10-08 00:56:00,
2013-10-07 17:58:00,55.1,48.7,29.39,North,0,0.0,0.0,79,0.00,,,0.02,WUHU216HW,2013-10-08 00:58:00,
2013-10-07 17:59:00,55.1,48.7,29.39,North,0,0.0,0.0,79,0.00,,,0.02,WUHU216HW,2013-10-08 00:59:00,
2013-10-07 18:01:00,54.9,48.5,29.39,North,0,0.0,0.0,79,0.00,,,0.02,WUHU216HW,2013-10-08 01:01:00,
2013-10-07 18:02:00,54.9,48.5,29.39,North,0,0.0,0.0,79,0.00,,,0.02,WUHU216HW,2013-10-08 01:02:00,
2013-10-07 18:03:00,54.7,48.3,29.39,North,0,0.0,0.0,79,0.00,,,0.02,WUHU216HW,2013-10-08 01:03:00,
2013-10-07 18:04:00,54.7,48.3,29.39,North,0,0.0,0.0,79,0.00,,,0.02,WUHU216HW,2013-10-08 01:04:00,
2013-10-07 18:06:00,54.5,48.5,29.39,North,0,0.0,0.0,80,0.00,,,0.02,WUHU216HW,2013-10-08 01:06:00,
2013-10-07 18:07:00,54.5,48.5,29.39,North,0,0.0,0.0,80,0.00,,,0.02,WUHU216HW,2013-10-08 01:07:00,
2013-10-07 18:08:00,54.4,48.3,29.39,North,0,0.0,0.0,80,0.00,,,0.02,WUHU216HW,2013-10-08 01:08:00,
2013-10-07 18:09:00,54.4,48.3,29.39,North,0,0.0,0.0,80,0.00,,,0.02,WUHU216HW,2013-10-08 01:09:00,
2013-10-07 18:11:00,54.4,48.3,29.39,North,0,0.0,0.0,80,0.00,,,0.02,WUHU216HW,2013-10-08 01:11:00,
2013-10-07 18:13:00,54.4,48.3,29.39,North,0,0.0,0.0,80,0.00,,,0.02,WUHU216HW,2013-10-08 01:13:00,
2013-10-07 18:14:00,54.2,48.2,29.39,North,0,0.0,0.0,80,0.00,,,0.02,WUHU216HW,2013-10-08 01:14:00,
2013-10-07 18:16:00,54.0,48.1,29.39,North,0,0.0,0.0,80,0.00,,,0.02,WUHU216HW,2013-10-08 01:16:00,
2013-10-07 18:17:00,54.0,48.1,29.39,North,0,0.0,0.0,80,0.00,,,0.02,WUHU216HW,2013-10-08 01:17:00,
2013-10-07 18:18:00,53.8,47.9,29.39,North,0,0.0,0.0,80,0.00,,,0.02,WUHU216HW,2013-10-08 01:18:00,
2013-10-07 18:19:00,53.8,47.9,29.39,North,0,0.0,0.0,80,0.00,,,0.02,WUHU216HW,2013-10-08 01:19:00,
2013-10-07 18:22:00,53.6,48.0,29.39,North,0,0.0,0.0,81,0.00,,,0.02,WUHU216HW,2013-10-08 01:22:00,
2013-10-07 18:23:00,53.5,47.8,29.39,North,0,0.0,0.0,81,0.00,,,0.02,WUHU216HW,2013-10-08 01:23:00,
2013-10-07 18:24:00,53.5,47.8,29.39,North,0,0.0,0.0,81,0.00,,,0.02,WUHU216HW,2013-10-08 01:24:00,
2013-10-07 18:25:00,53.5,47.8,29.39,North,0,0.0,0.0,81,0.00,,,0.02,WUHU216HW,2013-10-08 01:25:00,
2013-10-07 18:27:00,53.3,47.6,29.39,North,0,0.0,0.0,81,0.00,,,0.02,WUHU216HW,2013-10-08 01:27:00,
2013-10-07 18:28:00,53.1,47.4,29.39,North,0,0.0,0.0,81,0.00,,,0.02,WUHU216HW,2013-10-08 01:28:00,
2013-10-07 18:29:00,53.1,47.4,29.39,North,0,0.0,0.0,81,0.00,,,0.02,WUHU216HW,2013-10-08 01:29:00,
2013-10-07 18:30:00,53.1,47.4,29.39,North,0,0.0,0.0,81,0.00,,,0.02,WUHU216HW,2013-10-08 01:30:00,
2013-10-07 18:32:00,52.9,47.6,29.39,North,0,0.0,0.0,82,0.00,,,0.02,WUHU216HW,2013-10-08 01:32:00,
2013-10-07 18:33:00,52.9,47.6,29.39,North,0,0.0,0.0,82,0.00,,,0.02,WUHU216HW,2013-10-08 01:33:00,
2013-10-07 18:34:00,52.9,47.6,29.39,North,0,0.0,0.0,82,0.00,,,0.02,WUHU216HW,2013-10-08 01:34:00,
2013-10-07 18:35:00,52.9,47.6,29.39,North,0,0.0,0.0,82,0.00,,,0.02,WUHU216HW,2013-10-08 01:35:00,
2013-10-07 18:37:00,52.7,47.4,29.39,North,0,0.0,0.0,82,0.00,,,0.02,WUHU216HW,2013-10-08 01:37:00,
2013-10-07 18:38:00,52.7,47.4,29.39,North,0,0.0,0.0,82,0.00,,,0.02,WUHU216HW,2013-10-08 01:38:00,
2013-10-07 18:39:00,52.6,47.3,29.39,North,0,0.0,0.0,82,0.00,,,0.02,WUHU216HW,2013-10-08 01:39:00,
2013-10-07 18:40:00,52.6,47.3,29.39,North,0,0.0,0.0,82,0.00,,,0.02,WUHU216HW,2013-10-08 01:40:00,
2013-10-07 18:42:00,52.6,47.3,29.39,North,0,0.0,0.0,82,0.00,,,0.02,WUHU216HW,2013-10-08 01:42:00,
2013-10-07 18:43:00,52.4,47.1,29.39,North,0,0.0,0.0,82,0.00,,,0.02,WUHU216HW,2013-10-08 01:43:00,
2013-10-07 18:44:00,52.4,47.1,29.39,North,0,0.0,0.0,82,0.00,,,0.02,WUHU216HW,2013-10-08 01:44:00,
2013-10-07 18:45:00,52.4,47.1,29.39,North,0,0.0,0.0,82,0.00,,,0.02,WUHU216HW,2013-10-08 01:45:00,
2013-10-07 18:47:00,52.4,47.1,29.39,North,0,0.0,0.0,82,0.00,,,0.02,WUHU216HW,2013-10-08 01:47:00,
2013-10-07 18:48:00,52.2,46.9,29.39,North,0,0.0,0.0,82,0.00,,,0.02,WUHU216HW,2013-10-08 01:48:00,
2013-10-07 18:49:00,52.2,46.9,29.39,North,0,0.0,0.0,82,0.00,,,0.02,WUHU216HW,2013-10-08 01:49:00,
2013-10-07 18:50:00,52.2,46.9,29.39,North,0,0.0,0.0,82,0.00,,,0.02,WUHU216HW,2013-10-08 01:50:00,
2013-10-07 18:52:00,52.0,46.7,29.39,North,0,0.0,0.0,82,0.00,,,0.02,WUHU216HW,2013-10-08 01:52:00,
2013-10-07 18:53:00,52.0,46.7,29.39,North,0,0.0,0.0,82,0.00,,,0.02,WUHU216HW,2013-10-08 01:53:00,
2013-10-07 18:54:00,52.0,46.7,29.39,North,0,0.0,0.0,82,0.00,,,0.02,WUHU216HW,2013-10-08 01:54:00,
2013-10-07 18:55:00,52.0,46.7,29.40,North,0,0.0,0.0,82,0.00,,,0.02,WUHU216HW,2013-10-08 01:55:00,
2013-10-07 18:58:00,51.8,46.5,29.39,North,0,0.0,0.0,82,0.00,,,0.02,WUHU216HW,2013-10-08 01:58:00,
2013-10-07 18:59:00,51.7,46.4,29.39,North,0,0.0,0.0,82,0.00,,,0.02,WUHU216HW,2013-10-08 01:59:00,
2013-10-07 19:00:00,51.7,46.4,29.40,North,0,0.0,0.0,82,0.00,,,0.02,WUHU216HW,2013-10-08 02:00:00,
2013-10-07 19:01:00,51.7,46.4,29.40,North,0,0.0,0.0,82,0.00,,,0.02,WUHU216HW,2013-10-08 02:01:00,
2013-10-07 19:03:00,51.7,46.4,29.39,North,0,0.0,0.0,82,0.00,,,0.02,WUHU216HW,2013-10-08 02:03:00,
2013-10-07 19:04:00,51.5,46.2,29.39,North,0,0.0,0.0,82,0.00,,,0.02,WUHU216HW,2013-10-08 02:04:00,
2013-10-07 19:05:00,51.5,46.2,29.40,North,0,0.0,0.0,82,0.00,,,0.02,WUHU216HW,2013-10-08 02:05:00,
2013-10-07 19:06:00,51.5,46.2,29.40,North,0,0.0,0.0,82,0.00,,,0.02,WUHU216HW,2013-10-08 02:06:00,
2013-10-07 19:09:00,51.5,46.2,29.40,North,0,0.0,0.0,82,0.00,,,0.02,WUHU216HW,2013-10-08 02:09:00,
2013-10-07 19:10:00,51.5,46.2,29.40,North,0,0.0,0.0,82,0.00,,,0.02,WUHU216HW,2013-10-08 02:10:00,
2013-10-07 19:11:00,51.5,46.2,29.40,North,0,0.0,0.0,82,0.00,,,0.02,WUHU216HW,2013-10-08 02:11:00,
2013-10-07 19:14:00,51.5,46.2,29.40,North,0,0.0,0.0,82,0.00,,,0.02,WUHU216HW,2013-10-08 02:14:00,
2013-10-07 19:15:00,51.3,46.0,29.40,North,0,0.0,0.0,82,0.00,,,0.02,WUHU216HW,2013-10-08 02:15:00,
2013-10-07 19:16:00,51.3,46.0,29.40,North,0,0.0,0.0,82,0.00,,,0.02,WUHU216HW,2013-10-08 02:16:00,
2013-10-07 19:19:00,51.3,46.0,29.39,North,0,0.0,0.0,82,0.00,,,0.02,WUHU216HW,2013-10-08 02:19:00,
2013-10-07 19:20:00,51.3,46.0,29.39,North,0,0.0,0.0,82,0.00,,,0.02,WUHU216HW,2013-10-08 02:20:00,
2013-10-07 19:21:00,51.3,46.0,29.39,North,0,0.0,0.0,82,0.00,,,0.02,WUHU216HW,2013-10-08 02:21:00,
2013-10-07 19:24:00,51.3,46.0,29.39,North,0,0.0,0.0,82,0.00,,,0.02,WUHU216HW,2013-10-08 02:24:00,
2013-10-07 19:25:00,51.3,46.0,29.40,North,0,0.0,0.0,82,0.00,,,0.02,WUHU216HW,2013-10-08 02:25:00,
2013-10-07 19:26:00,51.3,46.0,29.40,North,0,0.0,0.0,82,0.00,,,0.02,WUHU216HW,2013-10-08 02:26:00,
2013-10-07 19:27:00,51.3,46.0,29.40,North,0,0.0,0.0,82,0.00,,,0.02,WUHU216HW,2013-10-08 02:27:00,
2013-10-07 19:29:00,51.3,46.0,29.40,North,0,0.0,0.0,82,0.00,,,0.02,WUHU216HW,2013-10-08 02:29:00,
2013-10-07 19:30:00,51.3,46.0,29.40,North,0,0.0,0.0,82,0.00,,,0.02,WUHU216HW,2013-10-08 02:30:00,
2013-10-07 19:31:00,51.3,46.0,29.39,North,0,0.0,0.0,82,0.00,,,0.02,WUHU216HW,2013-10-08 02:31:00,
2013-10-07 19:32:00,51.3,46.3,29.40,North,0,0.0,0.0,83,0.00,,,0.02,WUHU216HW,2013-10-08 02:32:00,
2013-10-07 19:34:00,51.1,46.1,29.40,North,0,0.0,0.0,83,0.00,,,0.02,WUHU216HW,2013-10-08 02:34:00,
2013-10-07 19:35:00,51.1,46.1,29.40,North,0,0.0,0.0,83,0.00,,,0.02,WUHU216HW,2013-10-08 02:35:00,
2013-10-07 19:36:00,51.1,46.1,29.40,North,0,0.0,0.0,83,0.00,,,0.02,WUHU216HW,2013-10-08 02:36:00,
2013-10-07 19:37:00,51.1,46.1,29.40,North,0,0.0,0.0,83,0.00,,,0.02,WUHU216HW,2013-10-08 02:37:00,
2013-10-07 19:39:00,51.1,46.1,29.40,North,0,0.0,0.0,83,0.00,,,0.02,WUHU216HW,2013-10-08 02:39:00,
2013-10-07 19:40:00,51.1,46.1,29.40,North,0,0.0,0.0,83,0.00,,,0.02,WUHU216HW,2013-10-08 02:40:00,
2013-10-07 19:41:00,51.1,46.1,29.40,North,0,0.0,0.0,83,0.00,,,0.02,WUHU216HW,2013-10-08 02:41:00,
2013-10-07 19:44:00,50.9,45.9,29.40,North,0,0.0,0.0,83,0.00,,,0.02,WUHU216HW,2013-10-08 02:44:00,
2013-10-07 19:45:00,50.9,45.9,29.40,North,0,0.0,0.0,83,0.00,,,0.02,WUHU216HW,2013-10-08 02:45:00,
2013-10-07 19:46:00,50.9,45.9,29.40,North,0,0.0,0.0,83,0.00,,,0.02,WUHU216HW,2013-10-08 02:46:00,
2013-10-07 19:48:00,50.9,45.9,29.40,North,0,0.0,0.0,83,0.00,,,0.02,WUHU216HW,2013-10-08 02:48:00,
2013-10-07 19:49:00,50.9,45.9,29.40,North,0,0.0,0.0,83,0.00,,,0.02,WUHU216HW,2013-10-08 02:49:00,
2013-10-07 19:50:00,50.9,45.9,29.40,North,0,0.0,0.0,83,0.00,,,0.02,WUHU216HW,2013-10-08 02:50:00,
2013-10-07 19:51:00,50.8,45.7,29.40,North,0,0.0,0.0,83,0.00,,,0.02,WUHU216HW,2013-10-08 02:51:00,
2013-10-07 19:52:00,50.8,45.7,29.40,North,0,0.0,0.0,83,0.00,,,0.02,WUHU216HW,2013-10-08 02:52:00,
2013-10-07 19:54:00,50.8,45.7,29.40,North,0,0.0,0.0,83,0.00,,,0.02,WUHU216HW,2013-10-08 02:54:00,
2013-10-07 19:55:00,50.8,45.7,29.40,North,0,0.0,0.0,83,0.00,,,0.02,WUHU216HW,2013-10-08 02:55:00,
2013-10-07 19:57:00,50.8,45.7,29.40,North,0,0.0,0.0,83,0.00,,,0.02,WUHU216HW,2013-10-08 02:57:00,
2013-10-07 19:59:00,50.8,45.7,29.40,North,0,0.0,0.0,83,0.00,,,0.02,WUHU216HW,2013-10-08 02:59:00,
2013-10-07 20:00:00,50.8,45.7,29.40,North,0,0.0,0.0,83,0.00,,,0.02,WUHU216HW,2013-10-08 03:00:00,
2013-10-07 20:02:00,50.8,45.7,29.40,North,0,0.0,0.0,83,0.00,,,0.02,WUHU216HW,2013-10-08 03:02:00,
2013-10-07 20:04:00,50.6,45.5,29.40,North,0,0.0,0.0,83,0.00,,,0.02,WUHU216HW,2013-10-08 03:04:00,
2013-10-07 20:05:00,50.6,45.5,29.40,North,0,0.0,0.0,83,0.00,,,0.02,WUHU216HW,2013-10-08 03:05:00,
2013-10-07 20:06:00,50.6,45.5,29.40,North,0,0.0,0.0,83,0.00,,,0.02,WUHU216HW,2013-10-08 03:06:00,
2013-10-07 20:07:00,50.6,45.5,29.40,North,0,0.0,0.0,83,0.00,,,0.02,WUHU216HW,2013-10-08 03:07:00,
2013-10-07 20:09:00,50.4,45.4,29.40,North,0,0.0,0.0,83,0.00,,,0.02,WUHU216HW,2013-10-08 03:09:00,
2013-10-07 20:10:00,50.4,45.4,29.40,North,0,0.0,0.0,83,0.00,,,0.02,WUHU216HW,2013-10-08 03:10:00,
2013-10-07 20:12:00,50.4,45.4,29.40,North,0,0.0,0.0,83,0.00,,,0.02,WUHU216HW,2013-10-08 03:12:00,
2013-10-07 20:13:00,50.4,45.4,29.40,North,0,0.0,0.0,83,0.00,,,0.02,WUHU216HW,2013-10-08 03:13:00,
2013-10-07 20:14:00,50.4,45.4,29.40,North,0,0.0,0.0,83,0.00,,,0.02,WUHU216HW,2013-10-08 03:14:00,
2013-10-07 20:15:00,50.4,45.4,29.40,North,0,0.0,0.0,83,0.00,,,0.02,WUHU216HW,2013-10-08 03:15:00,
2013-10-07 20:17:00,50.2,45.2,29.40,North,0,0.0,0.0,83,0.00,,,0.02,WUHU216HW,2013-10-08 03:17:00,
2013-10-07 20:18:00,50.2,45.2,29.40,North,0,0.0,0.0,83,0.00,,,0.02,WUHU216HW,2013-10-08 03:18:00,
2013-10-07 20:20:00,50.2,45.6,29.40,North,0,0.0,0.0,84,0.00,,,0.02,WUHU216HW,2013-10-08 03:20:00,
2013-10-07 20:22:00,50.0,45.4,29.40,North,0,0.0,0.0,84,0.00,,,0.02,WUHU216HW,2013-10-08 03:22:00,
2013-10-07 20:23:00,50.0,45.4,29.40,North,0,0.0,0.0,84,0.00,,,0.02,WUHU216HW,2013-10-08 03:23:00,
2013-10-07 20:24:00,50.0,45.4,29.40,North,0,0.0,0.0,84,0.00,,,0.02,WUHU216HW,2013-10-08 03:24:00,
2013-10-07 20:25:00,50.0,45.4,29.40,North,0,0.0,0.0,84,0.00,,,0.02,WUHU216HW,2013-10-08 03:25:00,
2013-10-07 20:26:00,50.0,45.4,29.40,North,0,0.0,0.0,84,0.00,,,0.02,WUHU216HW,2013-10-08 03:26:00,
2013-10-07 20:27:00,50.0,45.4,29.40,North,0,0.0,0.0,84,0.00,,,0.02,WUHU216HW,2013-10-08 03:27:00,
2013-10-07 20:29:00,50.0,45.4,29.40,North,0,0.0,0.0,84,0.00,,,0.02,WUHU216HW,2013-10-08 03:29:00,
2013-10-07 20:30:00,49.9,45.2,29.40,North,0,0.0,0.0,84,0.00,,,0.02,WUHU216HW,2013-10-08 03:30:00,
2013-10-07 20:31:00,49.9,45.2,29.40,North,0,0.0,0.0,84,0.00,,,0.02,WUHU216HW,2013-10-08 03:31:00,
2013-10-07 20:33:00,49.9,45.2,29.40,North,0,0.0,0.0,84,0.00,,,0.02,WUHU216HW,2013-10-08 03:33:00,
2013-10-07 20:34:00,49.7,45.0,29.40,North,0,0.0,0.0,84,0.00,,,0.02,WUHU216HW,2013-10-08 03:34:00,
2013-10-07 20:35:00,49.7,45.0,29.40,North,0,0.0,0.0,84,0.00,,,0.02,WUHU216HW,2013-10-08 03:35:00,
2013-10-07 20:36:00,49.7,45.0,29.40,North,0,0.0,0.0,84,0.00,,,0.02,WUHU216HW,2013-10-08 03:36:00,
2013-10-07 20:38:00,49.7,45.0,29.40,North,0,0.0,0.0,84,0.00,,,0.02,WUHU216HW,2013-10-08 03:38:00,
2013-10-07 20:39:00,49.5,44.8,29.40,North,0,0.0,0.0,84,0.00,,,0.02,WUHU216HW,2013-10-08 03:39:00,
2013-10-07 20:40:00,49.5,44.8,29.40,North,0,0.0,0.0,84,0.00,,,0.02,WUHU216HW,2013-10-08 03:40:00,
2013-10-07 20:41:00,49.5,44.8,29.40,North,0,0.0,0.0,84,0.00,,,0.02,WUHU216HW,2013-10-08 03:41:00,
2013-10-07 20:42:00,49.5,44.8,29.40,North,0,0.0,0.0,84,0.00,,,0.02,WUHU216HW,2013-10-08 03:42:00,
2013-10-07 20:44:00,49.5,44.8,29.40,North,0,0.0,0.0,84,0.00,,,0.02,WUHU216HW,2013-10-08 03:44:00,
2013-10-07 20:45:00,49.3,44.7,29.40,North,0,0.0,0.0,84,0.00,,,0.02,WUHU216HW,2013-10-08 03:45:00,
2013-10-07 20:46:00,49.3,44.7,29.40,North,0,0.0,0.0,84,0.00,,,0.02,WUHU216HW,2013-10-08 03:46:00,
2013-10-07 20:47:00,49.3,44.7,29.40,North,0,0.0,0.0,84,0.00,,,0.02,WUHU216HW,2013-10-08 03:47:00,
2013-10-07 20:49:00,49.3,44.7,29.40,North,0,0.0,0.0,84,0.00,,,0.02,WUHU216HW,2013-10-08 03:49:00,
2013-10-07 20:50:00,49.3,44.7,29.40,North,0,0.0,0.0,84,0.00,,,0.02,WUHU216HW,2013-10-08 03:50:00,
2013-10-07 20:51:00,49.3,44.7,29.40,North,0,0.0,0.0,84,0.00,,,0.02,WUHU216HW,2013-10-08 03:51:00,
2013-10-07 20:52:00,49.1,44.5,29.40,North,0,0.0,0.0,84,0.00,,,0.02,WUHU216HW,2013-10-08 03:52:00,
2013-10-07 20:54:00,49.1,44.5,29.40,North,0,0.0,0.0,84,0.00,,,0.02,WUHU216HW,2013-10-08 03:54:00,
2013-10-07 20:55:00,49.1,44.5,29.40,North,0,0.0,0.0,84,0.00,,,0.02,WUHU216HW,2013-10-08 03:55:00,
2013-10-07 20:56:00,49.1,44.5,29.40,North,0,0.0,0.0,84,0.00,,,0.02,WUHU216HW,2013-10-08 03:56:00,
2013-10-07 20:57:00,49.0,44.7,29.40,North,0,0.0,0.0,85,0.00,,,0.02,WUHU216HW,2013-10-08 03:57:00,
2013-10-07 20:58:00,49.0,44.7,29.40,North,0,0.0,0.0,85,0.00,,,0.02,WUHU216HW,2013-10-08 03:58:00,
2013-10-07 20:59:00,49.0,44.7,29.40,North,0,0.0,0.0,85,0.00,,,0.02,WUHU216HW,2013-10-08 03:59:00,
2013-10-07 21:00:00,49.0,44.7,29.40,North,0,0.0,0.0,85,0.00,,,0.02,WUHU216HW,2013-10-08 04:00:00,
2013-10-07 21:01:00,49.0,44.7,29.40,North,0,0.0,0.0,85,0.00,,,0.02,WUHU216HW,2013-10-08 04:01:00,
2013-10-07 21:06:00,48.8,44.5,29.40,North,0,0.0,0.0,85,0.00,,,0.02,WUHU216HW,2013-10-08 04:06:00,
2013-10-07 21:11:00,48.6,44.3,29.40,North,0,0.0,0.0,85,0.00,,,0.02,WUHU216HW,2013-10-08 04:11:00,
2013-10-07 21:12:00,48.6,44.3,29.40,North,0,0.0,0.0,85,0.00,,,0.02,WUHU216HW,2013-10-08 04:12:00,
2013-10-07 21:16:00,48.4,44.1,29.40,North,0,0.0,0.0,85,0.00,,,0.02,WUHU216HW,2013-10-08 04:16:00,
2013-10-07 21:17:00,48.4,44.1,29.40,North,0,0.0,0.0,85,0.00,,,0.02,WUHU216HW,2013-10-08 04:17:00,
2013-10-07 21:21:00,48.2,43.9,29.41,North,0,0.0,0.0,85,0.00,,,0.02,WUHU216HW,2013-10-08 04:21:00,
2013-10-07 21:22:00,48.2,43.9,29.41,North,0,0.0,0.0,85,0.00,,,0.02,WUHU216HW,2013-10-08 04:22:00,
2013-10-07 21:26:00,48.2,44.3,29.41,North,0,0.0,0.0,86,0.00,,,0.02,WUHU216HW,2013-10-08 04:26:00,
2013-10-07 21:27:00,48.2,44.3,29.41,North,0,0.0,0.0,86,0.00,,,0.02,WUHU216HW,2013-10-08 04:27:00,
2013-10-07 21:31:00,48.2,44.3,29.40,North,0,0.0,0.0,86,0.00,,,0.02,WUHU216HW,2013-10-08 04:31:00,
2013-10-07 21:32:00,48.2,44.3,29.40,North,0,0.0,0.0,86,0.00,,,0.02,WUHU216HW,2013-10-08 04:32:00,
2013-10-07 21:33:00,48.2,44.6,29.41,North,0,0.0,0.0,87,0.00,,,0.02,WUHU216HW,2013-10-08 04:33:00,
2013-10-07 21:36:00,48.2,44.6,29.40,North,0,0.0,0.0,87,0.00,,,0.02,WUHU216HW,2013-10-08 04:36:00,
2013-10-07 21:37:00,48.2,44.6,29.40,North,0,0.0,0.0,87,0.00,,,0.02,WUHU216HW,2013-10-08 04:37:00,
2013-10-07 21:38:00,48.2,44.6,29.40,North,0,0.0,0.0,87,0.00,,,0.02,WUHU216HW,2013-10-08 04:38:00,
2013-10-07 21:42:00,48.2,44.6,29.40,North,0,0.0,0.0,87,0.00,,,0.02,WUHU216HW,2013-10-08 04:42:00,
2013-10-07 21:43:00,48.2,44.6,29.41,North,0,0.0,0.0,87,0.00,,,0.02,WUHU216HW,2013-10-08 04:43:00,
2013-10-07 21:44:00,48.2,44.6,29.41,North,0,0.0,0.0,87,0.00,,,0.02,WUHU216HW,2013-10-08 04:44:00,
2013-10-07 21:47:00,48.2,44.6,29.40,North,0,0.0,0.0,87,0.00,,,0.02,WUHU216HW,2013-10-08 04:47:00,
2013-10-07 21:48:00,48.2,44.6,29.41,North,0,0.0,0.0,87,0.00,,,0.02,WUHU216HW,2013-10-08 04:48:00,
2013-10-07 21:50:00,48.2,44.6,29.41,North,0,0.0,0.0,87,0.00,,,0.02,WUHU216HW,2013-10-08 04:50:00,
2013-10-07 21:52:00,48.2,44.6,29.41,North,0,0.0,0.0,87,0.00,,,0.02,WUHU216HW,2013-10-08 04:52:00,
2013-10-07 21:53:00,48.2,44.6,29.41,North,0,0.0,0.0,87,0.00,,,0.02,WUHU216HW,2013-10-08 04:53:00,
2013-10-07 21:55:00,48.2,44.6,29.41,North,0,0.0,0.0,87,0.00,,,0.02,WUHU216HW,2013-10-08 04:55:00,
2013-10-07 21:57:00,48.2,44.6,29.41,North,0,0.0,0.0,87,0.00,,,0.02,WUHU216HW,2013-10-08 04:57:00,
2013-10-07 21:58:00,48.2,44.6,29.41,North,0,0.0,0.0,87,0.00,,,0.02,WUHU216HW,2013-10-08 04:58:00,
2013-10-07 21:59:00,48.1,44.4,29.41,North,0,0.0,0.0,87,0.00,,,0.02,WUHU216HW,2013-10-08 04:59:00,
2013-10-07 22:00:00,48.1,44.4,29.41,North,0,0.0,0.0,87,0.00,,,0.02,WUHU216HW,2013-10-08 05:00:00,
2013-10-07 22:02:00,48.1,44.4,29.41,North,0,0.0,0.0,87,0.00,,,0.02,WUHU216HW,2013-10-08 05:02:00,
2013-10-07 22:03:00,48.1,44.4,29.41,North,0,0.0,0.0,87,0.00,,,0.02,WUHU216HW,2013-10-08 05:03:00,
2013-10-07 22:04:00,48.1,44.4,29.41,North,0,0.0,0.0,87,0.00,,,0.02,WUHU216HW,2013-10-08 05:04:00,
2013-10-07 22:05:00,47.9,44.2,29.41,North,0,0.0,0.0,87,0.00,,,0.02,WUHU216HW,2013-10-08 05:05:00,
2013-10-07 22:07:00,47.9,44.2,29.41,North,0,0.0,0.0,87,0.00,,,0.02,WUHU216HW,2013-10-08 05:07:00,
2013-10-07 22:08:00,47.9,44.2,29.41,North,0,0.0,0.0,87,0.00,,,0.02,WUHU216HW,2013-10-08 05:08:00,
2013-10-07 22:09:00,47.9,44.2,29.41,North,0,0.0,0.0,87,0.00,,,0.02,WUHU216HW,2013-10-08 05:09:00,
2013-10-07 22:10:00,47.9,44.2,29.41,North,0,0.0,0.0,87,0.00,,,0.02,WUHU216HW,2013-10-08 05:10:00,
2013-10-07 22:11:00,47.9,44.2,29.41,North,0,0.0,0.0,87,0.00,,,0.02,WUHU216HW,2013-10-08 05:11:00,
2013-10-07 22:13:00,47.9,44.2,29.41,North,0,0.0,0.0,87,0.00,,,0.02,WUHU216HW,2013-10-08 05:13:00,
2013-10-07 22:14:00,47.9,44.2,29.41,North,0,0.0,0.0,87,0.00,,,0.02,WUHU216HW,2013-10-08 05:14:00,
2013-10-07 22:15:00,47.9,44.2,29.41,North,0,0.0,0.0,87,0.00,,,0.02,WUHU216HW,2013-10-08 05:15:00,
2013-10-07 22:16:00,47.9,44.2,29.41,North,0,0.0,0.0,87,0.00,,,0.02,WUHU216HW,2013-10-08 05:16:00,
2013-10-07 22:18:00,47.7,44.0,29.41,North,0,0.0,0.0,87,0.00,,,0.02,WUHU216HW,2013-10-08 05:18:00,
2013-10-07 22:19:00,47.7,44.0,29.42,North,0,0.0,0.0,87,0.00,,,0.02,WUHU216HW,2013-10-08 05:19:00,
2013-10-07 22:20:00,47.7,44.0,29.41,North,0,0.0,0.0,87,0.00,,,0.02,WUHU216HW,2013-10-08 05:20:00,
2013-10-07 22:21:00,47.5,43.8,29.41,North,0,0.0,0.0,87,0.00,,,0.02,WUHU216HW,2013-10-08 05:21:00,
2013-10-07 22:23:00,47.5,43.8,29.41,North,0,0.0,0.0,87,0.00,,,0.02,WUHU216HW,2013-10-08 05:23:00,
2013-10-07 22:24:00,47.5,43.8,29.41,North,0,0.0,0.0,87,0.00,,,0.02,WUHU216HW,2013-10-08 05:24:00,
2013-10-07 22:25:00,47.5,43.8,29.41,North,0,0.0,0.0,87,0.00,,,0.02,WUHU216HW,2013-10-08 05:25:00,
2013-10-07 22:26:00,47.5,43.8,29.41,North,0,0.0,0.0,87,0.00,,,0.02,WUHU216HW,2013-10-08 05:26:00,
2013-10-07 22:28:00,47.3,43.7,29.41,North,0,0.0,0.0,87,0.00,,,0.02,WUHU216HW,2013-10-08 05:28:00,
2013-10-07 22:29:00,47.3,43.7,29.41,North,0,0.0,0.0,87,0.00,,,0.02,WUHU216HW,2013-10-08 05:29:00,
2013-10-07 22:30:00,47.3,43.7,29.41,North,0,0.0,0.0,87,0.00,,,0.02,WUHU216HW,2013-10-08 05:30:00,
2013-10-07 22:31:00,47.3,43.7,29.41,North,0,0.0,0.0,87,0.00,,,0.02,WUHU216HW,2013-10-08 05:31:00,
2013-10-07 22:32:00,47.3,43.7,29.42,North,0,0.0,0.0,87,0.00,,,0.02,WUHU216HW,2013-10-08 05:32:00,
2013-10-07 22:33:00,47.3,43.7,29.41,North,0,0.0,0.0,87,0.00,,,0.02,WUHU216HW,2013-10-08 05:33:00,
2013-10-07 22:34:00,47.3,43.7,29.41,North,0,0.0,0.0,87,0.00,,,0.02,WUHU216HW,2013-10-08 05:34:00,
2013-10-07 22:35:00,47.2,43.6,29.41,North,0,0.0,0.0,87,0.00,,,0.02,WUHU216HW,2013-10-08 05:35:00,
2013-10-07 22:36:00,47.2,43.6,29.42,North,0,0.0,0.0,87,0.00,,,0.02,WUHU216HW,2013-10-08 05:36:00,
2013-10-07 22:37:00,47.2,43.6,29.42,North,0,0.0,0.0,87,0.00,,,0.02,WUHU216HW,2013-10-08 05:37:00,
2013-10-07 22:38:00,47.2,43.6,29.41,North,0,0.0,0.0,87,0.00,,,0.02,WUHU216HW,2013-10-08 05:38:00,
2013-10-07 22:39:00,47.2,43.6,29.41,North,0,0.0,0.0,87,0.00,,,0.02,WUHU216HW,2013-10-08 05:39:00,
2013-10-07 22:40:00,47.2,43.6,29.42,North,0,0.0,0.0,87,0.00,,,0.02,WUHU216HW,2013-10-08 05:40:00,
2013-10-07 22:41:00,47.0,43.7,29.42,North,0,0.0,0.0,88,0.00,,,0.02,WUHU216HW,2013-10-08 05:41:00,
2013-10-07 22:42:00,47.2,43.8,29.41,North,0,0.0,0.0,88,0.00,,,0.02,WUHU216HW,2013-10-08 05:42:00,
2013-10-07 22:43:00,47.2,43.8,29.41,North,0,0.0,0.0,88,0.00,,,0.02,WUHU216HW,2013-10-08 05:43:00,
2013-10-07 22:44:00,47.2,43.8,29.41,North,0,0.0,0.0,88,0.00,,,0.02,WUHU216HW,2013-10-08 05:44:00,
2013-10-07 22:45:00,47.2,43.8,29.41,North,0,0.0,0.0,88,0.00,,,0.02,WUHU216HW,2013-10-08 05:45:00,
2013-10-07 22:47:00,47.0,43.7,29.41,North,0,0.0,0.0,88,0.00,,,0.02,WUHU216HW,2013-10-08 05:47:00,
2013-10-07 22:49:00,47.0,43.7,29.41,North,0,0.0,0.0,88,0.00,,,0.02,WUHU216HW,2013-10-08 05:49:00,
2013-10-07 22:50:00,47.0,43.7,29.41,North,0,0.0,0.0,88,0.00,,,0.02,WUHU216HW,2013-10-08 05:50:00,
2013-10-07 22:52:00,47.0,43.7,29.41,North,0,0.0,0.0,88,0.00,,,0.02,WUHU216HW,2013-10-08 05:52:00,
2013-10-07 22:53:00,46.8,43.5,29.41,North,0,0.0,0.0,88,0.00,,,0.02,WUHU216HW,2013-10-08 05:53:00,
2013-10-07 22:54:00,46.8,43.5,29.41,North,0,0.0,0.0,88,0.00,,,0.02,WUHU216HW,2013-10-08 05:54:00,
2013-10-07 22:55:00,46.8,43.5,29.41,North,0,0.0,0.0,88,0.00,,,0.02,WUHU216HW,2013-10-08 05:55:00,
2013-10-07 22:57:00,46.8,43.5,29.41,North,0,0.0,0.0,88,0.00,,,0.02,WUHU216HW,2013-10-08 05:57:00,
2013-10-07 22:59:00,46.8,43.5,29.41,North,0,0.0,0.0,88,0.00,,,0.02,WUHU216HW,2013-10-08 05:59:00,
2013-10-07 23:00:00,46.8,43.5,29.41,North,0,0.0,0.0,88,0.00,,,0.02,WUHU216HW,2013-10-08 06:00:00,
2013-10-07 23:01:00,46.8,43.5,29.41,North,0,0.0,0.0,88,0.00,,,0.02,WUHU216HW,2013-10-08 06:01:00,
2013-10-07 23:02:00,46.8,43.5,29.41,North,0,0.0,0.0,88,0.00,,,0.02,WUHU216HW,2013-10-08 06:02:00,
2013-10-07 23:04:00,46.8,43.5,29.41,North,0,0.0,0.0,88,0.00,,,0.02,WUHU216HW,2013-10-08 06:04:00,
2013-10-07 23:05:00,46.6,43.3,29.41,North,0,0.0,0.0,88,0.00,,,0.02,WUHU216HW,2013-10-08 06:05:00,
2013-10-07 23:06:00,46.6,43.3,29.41,North,0,0.0,0.0,88,0.00,,,0.02,WUHU216HW,2013-10-08 06:06:00,
2013-10-07 23:07:00,46.6,43.3,29.41,North,0,0.0,0.0,88,0.00,,,0.02,WUHU216HW,2013-10-08 06:07:00,
2013-10-07 23:09:00,46.6,43.3,29.41,North,0,0.0,0.0,88,0.00,,,0.02,WUHU216HW,2013-10-08 06:09:00,
2013-10-07 23:10:00,46.6,43.3,29.41,North,0,0.0,0.0,88,0.00,,,0.02,WUHU216HW,2013-10-08 06:10:00,
2013-10-07 23:11:00,46.4,43.1,29.41,North,0,0.0,0.0,88,0.00,,,0.02,WUHU216HW,2013-10-08 06:11:00,
2013-10-07 23:12:00,46.4,43.1,29.41,North,0,0.0,0.0,88,0.00,,,0.02,WUHU216HW,2013-10-08 06:12:00,
2013-10-07 23:14:00,46.4,43.1,29.41,North,0,0.0,0.0,88,0.00,,,0.02,WUHU216HW,2013-10-08 06:14:00,
2013-10-07 23:15:00,46.4,43.1,29.41,North,0,0.0,0.0,88,0.00,,,0.02,WUHU216HW,2013-10-08 06:15:00,
2013-10-07 23:16:00,46.4,43.1,29.41,North,0,0.0,0.0,88,0.00,,,0.02,WUHU216HW,2013-10-08 06:16:00,
2013-10-07 23:17:00,46.4,43.1,29.41,North,0,0.0,0.0,88,0.00,,,0.02,WUHU216HW,2013-10-08 06:17:00,
2013-10-07 23:19:00,46.4,43.1,29.41,North,0,0.0,0.0,88,0.00,,,0.02,WUHU216HW,2013-10-08 06:19:00,
2013-10-07 23:20:00,46.4,43.1,29.41,North,0,0.0,0.0,88,0.00,,,0.02,WUHU216HW,2013-10-08 06:20:00,
2013-10-07 23:22:00,46.4,43.1,29.41,North,0,0.0,0.0,88,0.00,,,0.02,WUHU216HW,2013-10-08 06:22:00,
2013-10-07 23:24:00,46.4,43.5,29.41,North,0,0.0,0.0,89,0.00,,,0.02,WUHU216HW,2013-10-08 06:24:00,
2013-10-07 23:26:00,46.4,43.5,29.41,North,0,0.0,0.0,89,0.00,,,0.02,WUHU216HW,2013-10-08 06:26:00,
2013-10-07 23:27:00,46.4,43.5,29.41,North,0,0.0,0.0,89,0.00,,,0.02,WUHU216HW,2013-10-08 06:27:00,
2013-10-07 23:28:00,46.4,43.5,29.41,North,0,0.0,0.0,89,0.00,,,0.02,WUHU216HW,2013-10-08 06:28:00,
2013-10-07 23:29:00,46.4,43.5,29.41,North,0,0.0,0.0,89,0.00,,,0.02,WUHU216HW,2013-10-08 06:29:00,
2013-10-07 23:31:00,46.4,43.5,29.41,North,0,0.0,0.0,89,0.00,,,0.02,WUHU216HW,2013-10-08 06:31:00,
2013-10-07 23:32:00,46.4,43.5,29.41,North,0,0.0,0.0,89,0.00,,,0.02,WUHU216HW,2013-10-08 06:32:00,
2013-10-07 23:33:00,46.3,43.3,29.41,North,0,0.0,0.0,89,0.00,,,0.02,WUHU216HW,2013-10-08 06:33:00,
2013-10-07 23:34:00,46.4,43.5,29.41,North,0,0.0,0.0,89,0.00,,,0.02,WUHU216HW,2013-10-08 06:34:00,
2013-10-07 23:35:00,46.4,43.5,29.41,North,0,0.0,0.0,89,0.00,,,0.02,WUHU216HW,2013-10-08 06:35:00,
2013-10-07 23:36:00,46.3,43.3,29.42,North,0,0.0,0.0,89,0.00,,,0.02,WUHU216HW,2013-10-08 06:36:00,
2013-10-07 23:37:00,46.3,43.3,29.42,North,0,0.0,0.0,89,0.00,,,0.02,WUHU216HW,2013-10-08 06:37:00,
2013-10-07 23:39:00,46.3,43.3,29.42,North,0,0.0,0.0,89,0.00,,,0.02,WUHU216HW,2013-10-08 06:39:00,
2013-10-07 23:40:00,46.3,43.3,29.42,North,0,0.0,0.0,89,0.00,,,0.02,WUHU216HW,2013-10-08 06:40:00,
2013-10-07 23:41:00,46.3,43.3,29.42,North,0,0.0,0.0,89,0.00,,,0.02,WUHU216HW,2013-10-08 06:41:00,
2013-10-07 23:42:00,46.1,43.1,29.42,North,0,0.0,0.0,89,0.00,,,0.02,WUHU216HW,2013-10-08 06:42:00,
2013-10-07 23:44:00,46.1,43.1,29.42,North,0,0.0,0.0,89,0.00,,,0.02,WUHU216HW,2013-10-08 06:44:00,
2013-10-07 23:45:00,46.1,43.1,29.42,North,0,0.0,0.0,89,0.00,,,0.02,WUHU216HW,2013-10-08 06:45:00,
2013-10-07 23:46:00,46.1,43.1,29.42,North,0,0.0,0.0,89,0.00,,,0.02,WUHU216HW,2013-10-08 06:46:00,
2013-10-07 23:47:00,46.1,43.1,29.42,North,0,0.0,0.0,89,0.00,,,0.02,WUHU216HW,2013-10-08 06:47:00,
2013-10-07 23:49:00,46.1,43.1,29.42,North,0,0.0,0.0,89,0.00,,,0.02,WUHU216HW,2013-10-08 06:49:00,
2013-10-07 23:50:00,46.1,43.1,29.42,North,0,0.0,0.0,89,0.00,,,0.02,WUHU216HW,2013-10-08 06:50:00,
2013-10-07 23:51:00,46.1,43.1,29.42,North,0,0.0,0.0,89,0.00,,,0.02,WUHU216HW,2013-10-08 06:51:00,
2013-10-07 23:52:00,45.9,42.9,29.42,North,0,0.0,0.0,89,0.00,,,0.02,WUHU216HW,2013-10-08 06:52:00,
2013-10-07 23:54:00,45.9,42.9,29.42,North,0,0.0,0.0,89,0.00,,,0.02,WUHU216HW,2013-10-08 06:54:00,
2013-10-07 23:55:00,45.9,42.9,29.42,North,0,0.0,0.0,89,0.00,,,0.02,WUHU216HW,2013-10-08 06:55:00,
2013-10-07 23:56:00,45.9,42.9,29.42,North,0,0.0,0.0,89,0.00,,,0.02,WUHU216HW,2013-10-08 06:56:00,
2013-10-07 23:57:00,45.7,42.8,29.42,North,0,0.0,0.0,89,0.00,,,0.02,WUHU216HW,2013-10-08 06:57:00,